Observation data for Palo Duro Reservoir 1NW on 11/19/2019      Previous  Date       Current Mesonet Observations  Soil Data  Daily Summary Page  Observations in Plain Language
KPD4 190600Z 07002KT 10/00 A2997 RMK A01 T00960000  RH  051%=      5-min Rain = 0
KPD4 190601Z 07002KT 10/00 A2997 RMK A01 T009600-0  RH  051%=      5-min Rain = 0
KPD4 190602Z 07002KT 10/00 A2997 RMK A01 T00960000  RH  051%=      5-min Rain = 0
KPD4 190603Z 07003KT 10/00 A2997 RMK A01 T00970000  RH  051%=      5-min Rain = 0
KPD4 190604Z 07003KT 10/00 A2996 RMK A01 T00970000  RH  051%=      5-min Rain = 0
KPD4 190605Z 07003KT 10/00 A2996 RMK A01 T00970000  RH  051%=      5-min Rain = 0
KPD4 190606Z 07003KT 10/00 A2996 RMK A01 T00970000  RH  051%=      5-min Rain = 0
KPD4 190607Z 07002KT 10/00 A2996 RMK A01 T00970000  RH  051%=      5-min Rain = 0
KPD4 190608Z 07002KT 10/00 A2996 RMK A01 T009600-0  RH  051%=      5-min Rain = 0
KPD4 190609Z 07001KT 10/00 A2997 RMK A01 T00960000  RH  051%=      5-min Rain = 0
KPD4 190610Z 08001KT 10/00 A2997 RMK A01 T009500-0  RH  051%=      5-min Rain = 0
KPD4 190611Z 08001KT 10/00 A2997 RMK A01 T00950000  RH  052%=      5-min Rain = 0
KPD4 190612Z 08000KT 10/00 A2997 RMK A01 T00950001  RH  052%=      5-min Rain = 0
KPD4 190613Z 00000KT 10/00 A2997 RMK A01 T00950001  RH  052%=      5-min Rain = 0
KPD4 190614Z 00000KT 10/00 A2997 RMK A01 T00960001  RH  052%=      5-min Rain = 0
KPD4 190615Z 00000KT 10/00 A2997 RMK A01 T00970002  RH  051%=      5-min Rain = 0
KPD4 190616Z 08000KT 10/00 A2997 RMK A01 T00980002  RH  051%=      5-min Rain = 0
KPD4 190617Z 08000KT 10/00 A2997 RMK A01 T00980001  RH  051%=      5-min Rain = 0
KPD4 190618Z 10001KT 10/00 A2997 RMK A01 T00980002  RH  051%=      5-min Rain = 0
KPD4 190619Z 10001KT 10/00 A2997 RMK A01 T00980001  RH  051%=      5-min Rain = 0
KPD4 190620Z 11001KT 10/00 A2997 RMK A01 T00970000  RH  051%=      5-min Rain = 0
KPD4 190621Z 12000KT 09/M01 A2997 RMK A01 T00931008  RH  049%=      5-min Rain = 0
KPD4 190622Z 17001KT 08/M01 A2997 RMK A01 T00821011  RH  052%=      5-min Rain = 0
KPD4 190623Z 19001KT 08/M01 A2997 RMK A01 T00801008  RH  054%=      5-min Rain = 0
KPD4 190624Z 21002KT 08/M01 A2997 RMK A01 T00751012  RH  054%=      5-min Rain = 0
KPD4 190625Z 21002KT 07/M02 A2997 RMK A01 T00681016  RH  055%=      5-min Rain = 0
KPD4 190626Z 22003KT 06/M02 A2997 RMK A01 T00621016  RH  057%=      5-min Rain = 0
KPD4 190627Z 21003KT 06/M01 A2997 RMK A01 T00601012  RH  060%=      5-min Rain = 0
KPD4 190628Z 22003KT 06/M01 A2998 RMK A01 T00611011  RH  060%=      5-min Rain = 0
KPD4 190629Z 22003KT 06/M01 A2998 RMK A01 T00611011  RH  060%=      5-min Rain = 0
KPD4 190630Z 22004KT 06/M01 A2998 RMK A01 T00611011  RH  060%=      5-min Rain = 0
KPD4 190631Z 21004KT 06/M01 A2998 RMK A01 T00601011  RH  060%=      5-min Rain = 0
KPD4 190632Z 21004KT 06/M01 A2998 RMK A01 T00601010  RH  061%=      5-min Rain = 0
KPD4 190633Z 21004KT 06/M01 A2998 RMK A01 T00601010  RH  060%=      5-min Rain = 0
KPD4 190634Z 22004KT 06/M01 A2998 RMK A01 T00601011  RH  060%=      5-min Rain = 0
KPD4 190635Z 23004KT 06/M01 A2998 RMK A01 T00591012  RH  061%=      5-min Rain = 0
KPD4 190636Z 24005KT 06/M01 A2998 RMK A01 T00571012  RH  061%=      5-min Rain = 0
KPD4 190637Z 26004KT 06/M01 A2998 RMK A01 T00571011  RH  062%=      5-min Rain = 0
KPD4 190638Z 25006KT 06/M01 A2998 RMK A01 T00561013  RH  061%=      5-min Rain = 0
KPD4 190639Z 24007KT 05/M02 A2999 RMK A01 T00521015  RH  062%=      5-min Rain = 0
KPD4 190640Z 23006KT 05/M02 A2999 RMK A01 T00491015  RH  064%=      5-min Rain = 0
KPD4 190641Z 25007KT 05/M02 A2999 RMK A01 T00471015  RH  064%=      5-min Rain = 0
KPD4 190642Z 25007KT 05/M02 A2999 RMK A01 T00451015  RH  065%=      5-min Rain = 0
KPD4 190643Z 25006KT 04/M01 A2999 RMK A01 T00441014  RH  066%=      5-min Rain = 0
KPD4 190644Z 25006KT 04/M01 A2999 RMK A01 T00441014  RH  066%=      5-min Rain = 0
KPD4 190645Z 26006KT 04/M01 A2999 RMK A01 T00441014  RH  066%=      5-min Rain = 0
KPD4 190646Z 25006KT 04/M02 A2999 RMK A01 T00421015  RH  066%=      5-min Rain = 0
KPD4 190647Z 25007KT 04/M02 A2999 RMK A01 T00411015  RH  067%=      5-min Rain = 0
KPD4 190648Z 25006KT 04/M01 A2999 RMK A01 T00411014  RH  067%=      5-min Rain = 0
KPD4 190649Z 25006KT 04/M01 A2998 RMK A01 T00421014  RH  067%=      5-min Rain = 0
KPD4 190650Z 25006KT 04/M01 A2998 RMK A01 T00411014  RH  067%=      5-min Rain = 0
KPD4 190651Z 25006KT 04/M01 A2998 RMK A01 T00411014  RH  067%=      5-min Rain = 0
KPD4 190652Z 25006KT 04/M01 A2998 RMK A01 T00411013  RH  068%=      5-min Rain = 0
KPD4 190653Z 25006KT 04/M01 A2998 RMK A01 T00411013  RH  068%=      5-min Rain = 0
KPD4 190654Z 25005KT 04/M01 A2998 RMK A01 T00401014  RH  068%=      5-min Rain = 0
KPD4 190655Z 25005KT 04/M01 A2998 RMK A01 T00401013  RH  068%=      5-min Rain = 0
KPD4 190656Z 25005KT 04/M01 A2998 RMK A01 T00401013  RH  068%=      5-min Rain = 0
KPD4 190657Z 25006KT 04/M01 A2998 RMK A01 T00401014  RH  068%=      5-min Rain = 0
KPD4 190658Z 25006KT 04/M01 A2998 RMK A01 T00401014  RH  068%=      5-min Rain = 0
KPD4 190659Z 25006KT 04/M01 A2998 RMK A01 T00401014  RH  068%=      5-min Rain = 0
KPD4 190700Z 25006KT 04/M01 A2998 RMK A01 T00401013  RH  068%=      5-min Rain = 0
KPD4 190701Z 24006KT 04/M01 A2998 RMK A01 T00401013  RH  068%=      5-min Rain = 0
KPD4 190702Z 24006KT 04/M01 A2998 RMK A01 T00401014  RH  068%=      5-min Rain = 0
KPD4 190703Z 24006KT 04/M01 A2998 RMK A01 T00401014  RH  068%=      5-min Rain = 0
KPD4 190704Z 23007KT 04/M01 A2998 RMK A01 T00391014  RH  068%=      5-min Rain = 0
KPD4 190705Z 23007KT 04/M01 A2998 RMK A01 T00401012  RH  069%=      5-min Rain = 0
KPD4 190706Z 23006KT 04/M01 A2998 RMK A01 T00401012  RH  069%=      5-min Rain = 0
KPD4 190707Z 23006KT 04/M01 A2998 RMK A01 T00411011  RH  069%=      5-min Rain = 0
KPD4 190708Z 23006KT 04/M01 A2998 RMK A01 T00431009  RH  069%=      5-min Rain = 0
KPD4 190709Z 23006KT 05/M01 A2998 RMK A01 T00451009  RH  068%=      5-min Rain = 0
KPD4 190710Z 23006KT 05/M01 A2998 RMK A01 T00461009  RH  067%=      5-min Rain = 0
KPD4 190711Z 23005KT 05/M01 A2998 RMK A01 T00451010  RH  067%=      5-min Rain = 0
KPD4 190712Z 23005KT 05/M01 A2998 RMK A01 T00451011  RH  067%=      5-min Rain = 0
KPD4 190713Z 23005KT 04/M01 A2998 RMK A01 T00441011  RH  067%=      5-min Rain = 0
KPD4 190714Z 23005KT 04/M01 A2998 RMK A01 T00441011  RH  067%=      5-min Rain = 0
KPD4 190715Z 23005KT 04/M01 A2998 RMK A01 T00441011  RH  068%=      5-min Rain = 0
KPD4 190716Z 23005KT 04/M01 A2998 RMK A01 T00441010  RH  068%=      5-min Rain = 0
KPD4 190717Z 23005KT 05/M01 A2998 RMK A01 T00461008  RH  068%=      5-min Rain = 0
KPD4 190718Z 23005KT 05/M01 A2998 RMK A01 T00471008  RH  067%=      5-min Rain = 0
KPD4 190719Z 23005KT 05/M01 A2998 RMK A01 T00481008  RH  067%=      5-min Rain = 0
KPD4 190720Z 23005KT 05/M01 A2998 RMK A01 T00481009  RH  066%=      5-min Rain = 0
KPD4 190721Z 23005KT 05/M01 A2998 RMK A01 T00481009  RH  067%=      5-min Rain = 0
KPD4 190722Z 23005KT 05/M01 A2998 RMK A01 T00481009  RH  067%=      5-min Rain = 0
KPD4 190723Z 23005KT 05/M01 A2998 RMK A01 T00481009  RH  067%=      5-min Rain = 0
KPD4 190724Z 23005KT 05/M01 A2998 RMK A01 T00471010  RH  067%=      5-min Rain = 0
KPD4 190725Z 23005KT 05/M01 A2998 RMK A01 T00461010  RH  067%=      5-min Rain = 0
KPD4 190726Z 23006KT 05/M01 A2998 RMK A01 T00461010  RH  067%=      5-min Rain = 0
KPD4 190727Z 23006KT 05/M01 A2998 RMK A01 T00461010  RH  067%=      5-min Rain = 0
KPD4 190728Z 23006KT 05/M01 A2998 RMK A01 T00461009  RH  067%=      5-min Rain = 0
KPD4 190729Z 23006KT 05/M01 A2998 RMK A01 T00471009  RH  067%=      5-min Rain = 0
KPD4 190730Z 23006KT 05/M01 A2998 RMK A01 T00481008  RH  067%=      5-min Rain = 0
KPD4 190731Z 24006KT 05/M01 A2998 RMK A01 T00491008  RH  067%=      5-min Rain = 0
KPD4 190732Z 24005KT 05/M01 A2998 RMK A01 T00491008  RH  066%=      5-min Rain = 0
KPD4 190733Z 24006KT 05/M01 A2998 RMK A01 T00491009  RH  066%=      5-min Rain = 0
KPD4 190734Z 24006KT 05/M01 A2998 RMK A01 T00491009  RH  066%=      5-min Rain = 0
KPD4 190735Z 24006KT 05/M01 A2998 RMK A01 T00491009  RH  066%=      5-min Rain = 0
KPD4 190736Z 24006KT 05/M01 A2998 RMK A01 T00491009  RH  066%=      5-min Rain = 0
KPD4 190737Z 24006KT 05/M01 A2998 RMK A01 T00491009  RH  066%=      5-min Rain = 0
KPD4 190738Z 25005KT 05/M01 A2998 RMK A01 T00491008  RH  066%=      5-min Rain = 0
KPD4 190739Z 25005KT 05/M01 A2998 RMK A01 T00491009  RH  066%=      5-min Rain = 0
KPD4 190740Z 25005KT 05/M01 A2998 RMK A01 T00481010  RH  066%=      5-min Rain = 0
KPD4 190741Z 25005KT 05/M01 A2998 RMK A01 T00471011  RH  066%=      5-min Rain = 0
KPD4 190742Z 25006KT 05/M01 A2998 RMK A01 T00451011  RH  067%=      5-min Rain = 0
KPD4 190743Z 25006KT 04/M01 A2998 RMK A01 T00441013  RH  067%=      5-min Rain = 0
KPD4 190744Z 26006KT 04/M01 A2998 RMK A01 T00411014  RH  067%=      5-min Rain = 0
KPD4 190745Z 26006KT 04/M01 A2998 RMK A01 T00401014  RH  068%=      5-min Rain = 0
KPD4 190746Z 26006KT 04/M02 A2998 RMK A01 T00381015  RH  068%=      5-min Rain = 0
KPD4 190747Z 26007KT 04/M02 A2998 RMK A01 T00371015  RH  069%=      5-min Rain = 0
KPD4 190748Z 26007KT 04/M02 A2998 RMK A01 T00371015  RH  069%=      5-min Rain = 0
KPD4 190749Z 26007KT 04/M02 A2998 RMK A01 T00361015  RH  069%=      5-min Rain = 0
KPD4 190750Z 26007KT 04/M01 A2998 RMK A01 T00361014  RH  069%=      5-min Rain = 0
KPD4 190751Z 26007KT 04/M01 A2998 RMK A01 T00361014  RH  069%=      5-min Rain = 0
KPD4 190752Z 26006KT 04/M01 A2998 RMK A01 T00371014  RH  069%=      5-min Rain = 0
KPD4 190753Z 25006KT 04/M02 A2998 RMK A01 T00371015  RH  069%=      5-min Rain = 0
KPD4 190754Z 25006KT 04/M02 A2998 RMK A01 T00371015  RH  069%=      5-min Rain = 0
KPD4 190755Z 24006KT 04/M02 A2998 RMK A01 T00371015  RH  069%=      5-min Rain = 0
KPD4 190756Z 24005KT 04/M02 A2998 RMK A01 T00371015  RH  069%=      5-min Rain = 0
KPD4 190757Z 23006KT 04/M01 A2998 RMK A01 T00371014  RH  069%=      5-min Rain = 0
KPD4 190758Z 24006KT 04/M01 A2998 RMK A01 T00381014  RH  069%=      5-min Rain = 0
KPD4 190759Z 24006KT 04/M01 A2999 RMK A01 T00381014  RH  069%=      5-min Rain = 0
KPD4 190800Z 24006KT 04/M01 A2999 RMK A01 T00381014  RH  069%=      5-min Rain = 0
KPD4 190801Z 24006KT 04/M01 A2999 RMK A01 T00391014  RH  069%=      5-min Rain = 0
KPD4 190802Z 24005KT 04/M01 A2999 RMK A01 T00391014  RH  069%=      5-min Rain = 0
KPD4 190803Z 24005KT 04/M01 A2999 RMK A01 T00391014  RH  069%=      5-min Rain = 0
KPD4 190804Z 24005KT 04/M01 A2999 RMK A01 T00391014  RH  069%=      5-min Rain = 0
KPD4 190805Z 25005KT 04/M01 A2999 RMK A01 T00381014  RH  069%=      5-min Rain = 0
KPD4 190806Z 25005KT 04/M01 A2999 RMK A01 T00381014  RH  069%=      5-min Rain = 0
KPD4 190807Z 25005KT 04/M02 A2999 RMK A01 T00381015  RH  069%=      5-min Rain = 0
KPD4 190808Z 26005KT 04/M02 A2999 RMK A01 T00381015  RH  068%=      5-min Rain = 0
KPD4 190809Z 26005KT 04/M02 A2999 RMK A01 T00381015  RH  069%=      5-min Rain = 0
KPD4 190810Z 26005KT 04/M02 A2999 RMK A01 T00381015  RH  069%=      5-min Rain = 0
KPD4 190811Z 26006KT 04/M02 A2999 RMK A01 T00371015  RH  068%=      5-min Rain = 0
KPD4 190812Z 26006KT 04/M02 A2999 RMK A01 T00371016  RH  069%=      5-min Rain = 0
KPD4 190813Z 26006KT 04/M02 A2999 RMK A01 T00361016  RH  069%=      5-min Rain = 0
KPD4 190814Z 26006KT 04/M02 A2999 RMK A01 T00351016  RH  069%=      5-min Rain = 0
KPD4 190815Z 26006KT 04/M02 A2999 RMK A01 T00351016  RH  069%=      5-min Rain = 0
KPD4 190816Z 26006KT 04/M02 A2999 RMK A01 T00351017  RH  069%=      5-min Rain = 0
KPD4 190817Z 26006KT 04/M02 A2999 RMK A01 T00351016  RH  069%=      5-min Rain = 0
KPD4 190818Z 26006KT 04/M02 A2999 RMK A01 T00361015  RH  069%=      5-min Rain = 0
KPD4 190819Z 26006KT 04/M02 A2999 RMK A01 T00371015  RH  069%=      5-min Rain = 0
KPD4 190820Z 26006KT 04/M02 A2999 RMK A01 T00381015  RH  068%=      5-min Rain = 0
KPD4 190821Z 26006KT 04/M02 A2999 RMK A01 T00381015  RH  068%=      5-min Rain = 0
KPD4 190822Z 26006KT 04/M02 A2999 RMK A01 T00381016  RH  068%=      5-min Rain = 0
KPD4 190823Z 26006KT 04/M02 A2999 RMK A01 T00391015  RH  068%=      5-min Rain = 0
KPD4 190824Z 26006KT 04/M02 A2999 RMK A01 T00381016  RH  068%=      5-min Rain = 0
KPD4 190825Z 26006KT 04/M02 A2999 RMK A01 T00381015  RH  068%=      5-min Rain = 0
KPD4 190826Z 25006KT 04/M02 A2999 RMK A01 T00381016  RH  068%=      5-min Rain = 0
KPD4 190827Z 25005KT 04/M02 A2999 RMK A01 T00371017  RH  068%=      5-min Rain = 0
KPD4 190828Z 24004KT 04/M02 A2999 RMK A01 T00361018  RH  068%=      5-min Rain = 0
KPD4 190829Z 24004KT 04/M02 A2999 RMK A01 T00361018  RH  067%=      5-min Rain = 0
KPD4 190830Z 24005KT 04/M02 A2999 RMK A01 T00361019  RH  067%=      5-min Rain = 0
KPD4 190831Z 24005KT 04/M02 A2999 RMK A01 T00351020  RH  067%=      5-min Rain = 0
KPD4 190832Z 25005KT 03/M02 A2999 RMK A01 T00341021  RH  067%=      5-min Rain = 0
KPD4 190833Z 25005KT 03/M02 A2999 RMK A01 T00321022  RH  068%=      5-min Rain = 0
KPD4 190834Z 24004KT 03/M02 A2999 RMK A01 T00311021  RH  069%=      5-min Rain = 0
KPD4 190835Z 24004KT 03/M02 A2999 RMK A01 T00311021  RH  068%=      5-min Rain = 0
KPD4 190836Z 24004KT 03/M02 A2999 RMK A01 T00321021  RH  068%=      5-min Rain = 0
KPD4 190837Z 24004KT 03/M02 A2999 RMK A01 T00311021  RH  069%=      5-min Rain = 0
KPD4 190838Z 23003KT 03/M02 A2999 RMK A01 T00331019  RH  068%=      5-min Rain = 0
KPD4 190839Z 23003KT 03/M02 A2999 RMK A01 T00341020  RH  068%=      5-min Rain = 0
KPD4 190840Z 23002KT 04/M02 A2999 RMK A01 T00351021  RH  067%=      5-min Rain = 0
KPD4 190841Z 24002KT 03/M02 A2999 RMK A01 T00341023  RH  067%=      5-min Rain = 0
KPD4 190842Z 24003KT 03/M02 A2999 RMK A01 T00311024  RH  067%=      5-min Rain = 0
KPD4 190843Z 23003KT 03/M02 A2999 RMK A01 T00311023  RH  068%=      5-min Rain = 0
KPD4 190844Z 23003KT 03/M02 A2999 RMK A01 T00321023  RH  067%=      5-min Rain = 0
KPD4 190845Z 24004KT 03/M02 A2999 RMK A01 T00341023  RH  067%=      5-min Rain = 0
KPD4 190846Z 24004KT 03/M02 A2999 RMK A01 T00341023  RH  066%=      5-min Rain = 0
KPD4 190847Z 24004KT 04/M02 A2998 RMK A01 T00351023  RH  066%=      5-min Rain = 0
KPD4 190848Z 24004KT 04/M02 A2998 RMK A01 T00351023  RH  066%=      5-min Rain = 0
KPD4 190849Z 24004KT 04/M02 A2998 RMK A01 T00361023  RH  066%=      5-min Rain = 0
KPD4 190850Z 25004KT 04/M02 A2998 RMK A01 T00361023  RH  065%=      5-min Rain = 0
KPD4 190851Z 25004KT 04/M02 A2998 RMK A01 T00361022  RH  066%=      5-min Rain = 0
KPD4 190852Z 25004KT 04/M02 A2998 RMK A01 T00361021  RH  066%=      5-min Rain = 0
KPD4 190853Z 25004KT 04/M02 A2998 RMK A01 T00371019  RH  067%=      5-min Rain = 0
KPD4 190854Z 24004KT 04/M02 A2998 RMK A01 T00391020  RH  065%=      5-min Rain = 0
KPD4 190855Z 24003KT 04/M02 A2998 RMK A01 T00401021  RH  064%=      5-min Rain = 0
KPD4 190856Z 25003KT 04/M02 A2998 RMK A01 T00401022  RH  064%=      5-min Rain = 0
KPD4 190857Z 25003KT 04/M02 A2998 RMK A01 T00401023  RH  064%=      5-min Rain = 0
KPD4 190858Z 24003KT 04/M02 A2998 RMK A01 T00391024  RH  063%=      5-min Rain = 0
KPD4 190859Z 25002KT 04/M02 A2998 RMK A01 T00391024  RH  064%=      5-min Rain = 0
KPD4 190900Z 25002KT 04/M03 A2998 RMK A01 T00371025  RH  064%=      5-min Rain = 0
KPD4 190901Z 24003KT 04/M02 A2998 RMK A01 T00351024  RH  065%=      5-min Rain = 0
KPD4 190902Z 24003KT 04/M02 A2998 RMK A01 T00361023  RH  066%=      5-min Rain = 0
KPD4 190903Z 24003KT 04/M02 A2998 RMK A01 T00381021  RH  065%=      5-min Rain = 0
KPD4 190904Z 23002KT 04/M02 A2998 RMK A01 T00411019  RH  065%=      5-min Rain = 0
KPD4 190905Z 21002KT 04/M02 A2998 RMK A01 T00411022  RH  064%=      5-min Rain = 0
KPD4 190906Z 21002KT 04/M02 A2998 RMK A01 T00381021  RH  065%=      5-min Rain = 0
KPD4 190907Z 21003KT 04/M02 A2998 RMK A01 T00361022  RH  066%=      5-min Rain = 0
KPD4 190908Z 22003KT 04/M02 A2997 RMK A01 T00351023  RH  066%=      5-min Rain = 0
KPD4 190909Z 23003KT 04/M02 A2997 RMK A01 T00351021  RH  067%=      5-min Rain = 0
KPD4 190910Z 19002KT 04/M02 A2997 RMK A01 T00361021  RH  067%=      5-min Rain = 0
KPD4 190911Z 17001KT 04/M02 A2997 RMK A01 T00351021  RH  067%=      5-min Rain = 0
KPD4 190912Z 18002KT 04/M02 A2997 RMK A01 T00351019  RH  068%=      5-min Rain = 0
KPD4 190913Z 21002KT 04/M02 A2997 RMK A01 T00361016  RH  069%=      5-min Rain = 0
KPD4 190914Z 22002KT 04/M02 A2997 RMK A01 T00381015  RH  069%=      5-min Rain = 0
KPD4 190915Z 20002KT 04/M02 A2997 RMK A01 T00391016  RH  067%=      5-min Rain = 0
KPD4 190916Z 19002KT 04/M02 A2997 RMK A01 T00391016  RH  067%=      5-min Rain = 0
KPD4 190917Z 21003KT 04/M02 A2997 RMK A01 T00391016  RH  067%=      5-min Rain = 0
KPD4 190918Z 21003KT 04/M02 A2997 RMK A01 T00391015  RH  068%=      5-min Rain = 0
KPD4 190919Z 21002KT 04/M02 A2997 RMK A01 T00401016  RH  067%=      5-min Rain = 0
KPD4 190920Z 21002KT 04/M02 A2997 RMK A01 T00391018  RH  066%=      5-min Rain = 0
KPD4 190921Z 21002KT 04/M02 A2997 RMK A01 T00381016  RH  068%=      5-min Rain = 0
KPD4 190922Z 20002KT 04/M01 A2997 RMK A01 T00381014  RH  069%=      5-min Rain = 0
KPD4 190923Z 23002KT 04/M01 A2997 RMK A01 T00391013  RH  069%=      5-min Rain = 0
KPD4 190924Z 24002KT 04/M01 A2997 RMK A01 T00401011  RH  069%=      5-min Rain = 0
KPD4 190925Z 24002KT 04/M01 A2997 RMK A01 T00411012  RH  068%=      5-min Rain = 0
KPD4 190926Z 23002KT 04/M01 A2997 RMK A01 T00421012  RH  068%=      5-min Rain = 0
KPD4 190927Z 22002KT 04/M02 A2997 RMK A01 T00421016  RH  066%=      5-min Rain = 0
KPD4 190928Z 22002KT 04/M02 A2997 RMK A01 T00391016  RH  067%=      5-min Rain = 0
KPD4 190929Z 23002KT 04/M01 A2997 RMK A01 T00391014  RH  069%=      5-min Rain = 0
KPD4 190930Z 23003KT 04/M01 A2997 RMK A01 T00401011  RH  069%=      5-min Rain = 0
KPD4 190931Z 22003KT 04/M01 A2997 RMK A01 T00431010  RH  068%=      5-min Rain = 0
KPD4 190932Z 22004KT 04/M01 A2997 RMK A01 T00441013  RH  067%=      5-min Rain = 0
KPD4 190933Z 22004KT 04/M02 A2997 RMK A01 T00421015  RH  066%=      5-min Rain = 0
KPD4 190934Z 22004KT 04/M02 A2997 RMK A01 T00401017  RH  066%=      5-min Rain = 0
KPD4 190935Z 22005KT 04/M02 A2997 RMK A01 T00381018  RH  067%=      5-min Rain = 0
KPD4 190936Z 22005KT 04/M02 A2997 RMK A01 T00361018  RH  067%=      5-min Rain = 0
KPD4 190937Z 22005KT 04/M02 A2997 RMK A01 T00361019  RH  067%=      5-min Rain = 0
KPD4 190938Z 21005KT 03/M02 A2996 RMK A01 T00341020  RH  068%=      5-min Rain = 0
KPD4 190939Z 21005KT 03/M02 A2996 RMK A01 T00321020  RH  068%=      5-min Rain = 0
KPD4 190940Z 21005KT 03/M02 A2996 RMK A01 T00311020  RH  069%=      5-min Rain = 0
KPD4 190941Z 21005KT 03/M02 A2996 RMK A01 T00301019  RH  070%=      5-min Rain = 0
KPD4 190942Z 21005KT 03/M02 A2996 RMK A01 T00291019  RH  071%=      5-min Rain = 0
KPD4 190943Z 21005KT 03/M02 A2996 RMK A01 T00281018  RH  072%=      5-min Rain = 0
KPD4 190944Z 21005KT 03/M02 A2996 RMK A01 T00281017  RH  072%=      5-min Rain = 0
KPD4 190945Z 20005KT 03/M02 A2996 RMK A01 T00281017  RH  072%=      5-min Rain = 0
KPD4 190946Z 21005KT 03/M02 A2996 RMK A01 T00271017  RH  072%=      5-min Rain = 0
KPD4 190947Z 20005KT 03/M02 A2996 RMK A01 T00271018  RH  073%=      5-min Rain = 0
KPD4 190948Z 20005KT 03/M02 A2996 RMK A01 T00261018  RH  073%=      5-min Rain = 0
KPD4 190949Z 20005KT 03/M02 A2996 RMK A01 T00251018  RH  073%=      5-min Rain = 0
KPD4 190950Z 20006KT 02/M02 A2996 RMK A01 T00241018  RH  074%=      5-min Rain = 0
KPD4 190951Z 20006KT 02/M02 A2996 RMK A01 T00241018  RH  074%=      5-min Rain = 0
KPD4 190952Z 20006KT 02/M02 A2996 RMK A01 T00231017  RH  074%=      5-min Rain = 0
KPD4 190953Z 20007KT 02/M02 A2996 RMK A01 T00221019  RH  074%=      5-min Rain = 0
KPD4 190954Z 20006KT 02/M02 A2996 RMK A01 T00211018  RH  075%=      5-min Rain = 0
KPD4 190955Z 21006KT 02/M02 A2996 RMK A01 T00211018  RH  075%=      5-min Rain = 0
KPD4 190956Z 21006KT 02/M02 A2996 RMK A01 T00211018  RH  075%=      5-min Rain = 0
KPD4 190957Z 21006KT 02/M02 A2996 RMK A01 T00201019  RH  075%=      5-min Rain = 0
KPD4 190958Z 21006KT 02/M02 A2996 RMK A01 T00181020  RH  076%=      5-min Rain = 0
KPD4 190959Z 22006KT 02/M02 A2996 RMK A01 T00171020  RH  076%=      5-min Rain = 0
KPD4 191000Z 22006KT 02/M02 A2996 RMK A01 T00171019  RH  077%=      5-min Rain = 0
KPD4 191001Z 22006KT 02/M02 A2996 RMK A01 T00171019  RH  077%=      5-min Rain = 0
KPD4 191002Z 22007KT 02/M02 A2996 RMK A01 T00191017  RH  077%=      5-min Rain = 0
KPD4 191003Z 22007KT 02/M02 A2996 RMK A01 T00201016  RH  077%=      5-min Rain = 0
KPD4 191004Z 22007KT 02/M02 A2996 RMK A01 T00211016  RH  076%=      5-min Rain = 0
KPD4 191005Z 22006KT 02/M02 A2996 RMK A01 T00221015  RH  076%=      5-min Rain = 0
KPD4 191006Z 22006KT 02/M02 A2996 RMK A01 T00231016  RH  076%=      5-min Rain = 0
KPD4 191007Z 22006KT 02/M02 A2996 RMK A01 T00221016  RH  076%=      5-min Rain = 0
KPD4 191008Z 22006KT 02/M02 A2996 RMK A01 T00221016  RH  076%=      5-min Rain = 0
KPD4 191009Z 22006KT 02/M02 A2996 RMK A01 T00231016  RH  075%=      5-min Rain = 0
KPD4 191010Z 22005KT 02/M02 A2996 RMK A01 T00241017  RH  075%=      5-min Rain = 0
KPD4 191011Z 21006KT 02/M02 A2996 RMK A01 T00231018  RH  075%=      5-min Rain = 0
KPD4 191012Z 21005KT 02/M02 A2996 RMK A01 T00221017  RH  075%=      5-min Rain = 0
KPD4 191013Z 21005KT 02/M02 A2996 RMK A01 T00221017  RH  076%=      5-min Rain = 0
KPD4 191014Z 20005KT 02/M02 A2996 RMK A01 T00221016  RH  076%=      5-min Rain = 0
KPD4 191015Z 19004KT 02/M02 A2996 RMK A01 T00231015  RH  076%=      5-min Rain = 0
KPD4 191016Z 19004KT 02/M02 A2996 RMK A01 T00231016  RH  075%=      5-min Rain = 0
KPD4 191017Z 19004KT 02/M02 A2996 RMK A01 T00231017  RH  075%=      5-min Rain = 0
KPD4 191018Z 19004KT 02/M02 A2996 RMK A01 T00221017  RH  075%=      5-min Rain = 0
KPD4 191019Z 19004KT 02/M02 A2996 RMK A01 T00211017  RH  076%=      5-min Rain = 0
KPD4 191020Z 19004KT 02/M02 A2995 RMK A01 T00201017  RH  076%=      5-min Rain = 0
KPD4 191021Z 19004KT 02/M02 A2995 RMK A01 T00211016  RH  077%=      5-min Rain = 0
KPD4 191022Z 20004KT 02/M02 A2995 RMK A01 T00221016  RH  076%=      5-min Rain = 0
KPD4 191023Z 20005KT 02/M02 A2995 RMK A01 T00231016  RH  076%=      5-min Rain = 0
KPD4 191024Z 21005KT 02/M02 A2995 RMK A01 T00231015  RH  076%=      5-min Rain = 0
KPD4 191025Z 21005KT 02/M02 A2995 RMK A01 T00231016  RH  075%=      5-min Rain = 0
KPD4 191026Z 21005KT 02/M02 A2995 RMK A01 T00221017  RH  075%=      5-min Rain = 0
KPD4 191027Z 21005KT 02/M02 A2995 RMK A01 T00211018  RH  075%=      5-min Rain = 0
KPD4 191028Z 21006KT 02/M02 A2995 RMK A01 T00201018  RH  076%=      5-min Rain = 0
KPD4 191029Z 21006KT 02/M02 A2995 RMK A01 T00181019  RH  076%=      5-min Rain = 0
KPD4 191030Z 21006KT 02/M02 A2995 RMK A01 T00161021  RH  076%=      5-min Rain = 0
KPD4 191031Z 21006KT 01/M02 A2995 RMK A01 T00141022  RH  077%=      5-min Rain = 0
KPD4 191032Z 21006KT 01/M02 A2995 RMK A01 T00121023  RH  078%=      5-min Rain = 0
KPD4 191033Z 21006KT 01/M03 A2995 RMK A01 T00091025  RH  078%=      5-min Rain = 0
KPD4 191034Z 21006KT 01/M03 A2995 RMK A01 T00071025  RH  079%=      5-min Rain = 0
KPD4 191035Z 21005KT 01/M02 A2995 RMK A01 T00061024  RH  080%=      5-min Rain = 0
KPD4 191036Z 20006KT 01/M02 A2995 RMK A01 T00061023  RH  081%=      5-min Rain = 0
KPD4 191037Z 20006KT 01/M02 A2995 RMK A01 T00061022  RH  081%=      5-min Rain = 0
KPD4 191038Z 20006KT 01/M02 A2995 RMK A01 T00071022  RH  081%=      5-min Rain = 0
KPD4 191039Z 20005KT 01/M02 A2995 RMK A01 T00071022  RH  081%=      5-min Rain = 0
KPD4 191040Z 20006KT 01/M02 A2995 RMK A01 T00081021  RH  081%=      5-min Rain = 0
KPD4 191041Z 20006KT 01/M02 A2995 RMK A01 T00091020  RH  081%=      5-min Rain = 0
KPD4 191042Z 20006KT 01/M02 A2995 RMK A01 T00101020  RH  080%=      5-min Rain = 0
KPD4 191043Z 20006KT 01/M02 A2995 RMK A01 T00121019  RH  080%=      5-min Rain = 0
KPD4 191044Z 20006KT 01/M02 A2995 RMK A01 T00121020  RH  079%=      5-min Rain = 0
KPD4 191045Z 20006KT 01/M02 A2995 RMK A01 T00131018  RH  080%=      5-min Rain = 0
KPD4 191046Z 20006KT 01/M02 A2994 RMK A01 T00141018  RH  079%=      5-min Rain = 0
KPD4 191047Z 20005KT 01/M02 A2994 RMK A01 T00141019  RH  079%=      5-min Rain = 0
KPD4 191048Z 19005KT 01/M02 A2994 RMK A01 T00141019  RH  078%=      5-min Rain = 0
KPD4 191049Z 19005KT 01/M02 A2994 RMK A01 T00141019  RH  079%=      5-min Rain = 0
KPD4 191050Z 19005KT 02/M02 A2994 RMK A01 T00151018  RH  079%=      5-min Rain = 0
KPD4 191051Z 19005KT 02/M02 A2994 RMK A01 T00161017  RH  079%=      5-min Rain = 0
KPD4 191052Z 20005KT 02/M02 A2994 RMK A01 T00171016  RH  079%=      5-min Rain = 0
KPD4 191053Z 19005KT 02/M02 A2994 RMK A01 T00181016  RH  078%=      5-min Rain = 0
KPD4 191054Z 19004KT 02/M02 A2994 RMK A01 T00181017  RH  078%=      5-min Rain = 0
KPD4 191055Z 19004KT 02/M02 A2994 RMK A01 T00181017  RH  077%=      5-min Rain = 0
KPD4 191056Z 19004KT 02/M02 A2994 RMK A01 T00181017  RH  077%=      5-min Rain = 0
KPD4 191057Z 19004KT 02/M02 A2994 RMK A01 T00181018  RH  077%=      5-min Rain = 0
KPD4 191058Z 19004KT 02/M02 A2994 RMK A01 T00181018  RH  077%=      5-min Rain = 0
KPD4 191059Z 19004KT 02/M02 A2994 RMK A01 T00171018  RH  077%=      5-min Rain = 0
KPD4 191100Z 19004KT 02/M02 A2994 RMK A01 T00171018  RH  078%=      5-min Rain = 0
KPD4 191101Z 19004KT 02/M02 A2994 RMK A01 T00171018  RH  078%=      5-min Rain = 0
KPD4 191102Z 19004KT 02/M02 A2994 RMK A01 T00171018  RH  078%=      5-min Rain = 0
KPD4 191103Z 19004KT 02/M02 A2994 RMK A01 T00171018  RH  078%=      5-min Rain = 0
KPD4 191104Z 19003KT 02/M02 A2994 RMK A01 T00161018  RH  078%=      5-min Rain = 0
KPD4 191105Z 19003KT 02/M02 A2994 RMK A01 T00161018  RH  078%=      5-min Rain = 0
KPD4 191106Z 19004KT 02/M02 A2994 RMK A01 T00161018  RH  078%=      5-min Rain = 0
KPD4 191107Z 19004KT 02/M02 A2994 RMK A01 T00161018  RH  078%=      5-min Rain = 0
KPD4 191108Z 19004KT 02/M02 A2994 RMK A01 T00151019  RH  078%=      5-min Rain = 0
KPD4 191109Z 19004KT 02/M02 A2994 RMK A01 T00151019  RH  078%=      5-min Rain = 0
KPD4 191110Z 19004KT 02/M02 A2994 RMK A01 T00151019  RH  078%=      5-min Rain = 0
KPD4 191111Z 20004KT 01/M02 A2994 RMK A01 T00141020  RH  078%=      5-min Rain = 0
KPD4 191112Z 20004KT 01/M02 A2994 RMK A01 T00131021  RH  078%=      5-min Rain = 0
KPD4 191113Z 20004KT 01/M02 A2994 RMK A01 T00121021  RH  079%=      5-min Rain = 0
KPD4 191114Z 20005KT 01/M02 A2994 RMK A01 T00101023  RH  079%=      5-min Rain = 0
KPD4 191115Z 21005KT 01/M02 A2994 RMK A01 T00081024  RH  079%=      5-min Rain = 0
KPD4 191116Z 21005KT 01/M02 A2994 RMK A01 T00071024  RH  080%=      5-min Rain = 0
KPD4 191117Z 21005KT 01/M02 A2994 RMK A01 T00061024  RH  080%=      5-min Rain = 0
KPD4 191118Z 21005KT 01/M02 A2994 RMK A01 T00051023  RH  081%=      5-min Rain = 0
KPD4 191119Z 21005KT 01/M02 A2994 RMK A01 T00051023  RH  081%=      5-min Rain = 0
KPD4 191120Z 21005KT 01/M02 A2994 RMK A01 T00061022  RH  082%=      5-min Rain = 0
KPD4 191121Z 21006KT 01/M02 A2994 RMK A01 T00051022  RH  082%=      5-min Rain = 0
KPD4 191122Z 21006KT 01/M02 A2994 RMK A01 T00061021  RH  082%=      5-min Rain = 0
KPD4 191123Z 21006KT 01/M02 A2994 RMK A01 T00061021  RH  082%=      5-min Rain = 0
KPD4 191124Z 21006KT 01/M02 A2994 RMK A01 T00061022  RH  082%=      5-min Rain = 0
KPD4 191125Z 21006KT 01/M02 A2994 RMK A01 T00061022  RH  082%=      5-min Rain = 0
KPD4 191126Z 21005KT 01/M02 A2994 RMK A01 T00061022  RH  082%=      5-min Rain = 0
KPD4 191127Z 21005KT 01/M02 A2994 RMK A01 T00061022  RH  082%=      5-min Rain = 0
KPD4 191128Z 21005KT 01/M02 A2994 RMK A01 T00061022  RH  082%=      5-min Rain = 0
KPD4 191129Z 21005KT 01/M02 A2994 RMK A01 T00061022  RH  082%=      5-min Rain = 0
KPD4 191130Z 21005KT 01/M02 A2994 RMK A01 T00061021  RH  082%=      5-min Rain = 0
KPD4 191131Z 21006KT 01/M02 A2994 RMK A01 T00071020  RH  082%=      5-min Rain = 0
KPD4 191132Z 21006KT 01/M02 A2994 RMK A01 T00081020  RH  082%=      5-min Rain = 0
KPD4 191133Z 21006KT 01/M02 A2994 RMK A01 T00091020  RH  081%=      5-min Rain = 0
KPD4 191134Z 21005KT 01/M02 A2994 RMK A01 T00101018  RH  081%=      5-min Rain = 0
KPD4 191135Z 21005KT 01/M02 A2994 RMK A01 T00111018  RH  081%=      5-min Rain = 0
KPD4 191136Z 21005KT 01/M02 A2994 RMK A01 T00111019  RH  080%=      5-min Rain = 0
KPD4 191137Z 22004KT 01/M02 A2993 RMK A01 T00121018  RH  080%=      5-min Rain = 0
KPD4 191138Z 22005KT 01/M02 A2994 RMK A01 T00121018  RH  080%=      5-min Rain = 0
KPD4 191139Z 22005KT 01/M02 A2993 RMK A01 T00121019  RH  080%=      5-min Rain = 0
KPD4 191140Z 22005KT 01/M02 A2993 RMK A01 T00111019  RH  080%=      5-min Rain = 0
KPD4 191141Z 21005KT 01/M02 A2993 RMK A01 T00111019  RH  080%=      5-min Rain = 0
KPD4 191142Z 21005KT 01/M02 A2993 RMK A01 T00111019  RH  080%=      5-min Rain = 0
KPD4 191143Z 22005KT 01/M02 A2993 RMK A01 T00111019  RH  081%=      5-min Rain = 0
KPD4 191144Z 22005KT 01/M02 A2993 RMK A01 T00111019  RH  081%=      5-min Rain = 0
KPD4 191145Z 21005KT 01/M02 A2993 RMK A01 T00101019  RH  081%=      5-min Rain = 0
KPD4 191146Z 21004KT 01/M02 A2993 RMK A01 T00111019  RH  081%=      5-min Rain = 0
KPD4 191147Z 21004KT 01/M02 A2993 RMK A01 T00101019  RH  081%=      5-min Rain = 0
KPD4 191148Z 21004KT 01/M02 A2993 RMK A01 T00101019  RH  081%=      5-min Rain = 0
KPD4 191149Z 21004KT 01/M02 A2993 RMK A01 T00101019  RH  081%=      5-min Rain = 0
KPD4 191150Z 21004KT 01/M02 A2993 RMK A01 T00111019  RH  081%=      5-min Rain = 0
KPD4 191151Z 21004KT 01/M02 A2993 RMK A01 T00111019  RH  081%=      5-min Rain = 0
KPD4 191152Z 21004KT 01/M02 A2993 RMK A01 T00121019  RH  080%=      5-min Rain = 0
KPD4 191153Z 21004KT 01/M02 A2993 RMK A01 T00121019  RH  080%=      5-min Rain = 0
KPD4 191154Z 21004KT 01/M02 A2993 RMK A01 T00121018  RH  080%=      5-min Rain = 0
KPD4 191155Z 21005KT 01/M02 A2993 RMK A01 T00131018  RH  080%=      5-min Rain = 0
KPD4 191156Z 20005KT 01/M02 A2993 RMK A01 T00141017  RH  080%=      5-min Rain = 0
KPD4 191157Z 20004KT 02/M02 A2993 RMK A01 T00151017  RH  080%=      5-min Rain = 0
KPD4 191158Z 20005KT 02/M02 A2993 RMK A01 T00161016  RH  079%=      5-min Rain = 0
KPD4 191159Z 20005KT 02/M02 A2993 RMK A01 T00161017  RH  079%=      5-min Rain = 0
KPD4 191200Z 20005KT 02/M02 A2993 RMK A01 T00161018  RH  078%=      5-min Rain = 0
KPD4 191201Z 20005KT 02/M02 A2993 RMK A01 T00151019  RH  078%=      5-min Rain = 0
KPD4 191202Z 20005KT 01/M02 A2993 RMK A01 T00141019  RH  079%=      5-min Rain = 0
KPD4 191203Z 20005KT 01/M02 A2993 RMK A01 T00141019  RH  079%=      5-min Rain = 0
KPD4 191204Z 20005KT 01/M02 A2993 RMK A01 T00131019  RH  079%=      5-min Rain = 0
KPD4 191205Z 20005KT 01/M02 A2993 RMK A01 T00131019  RH  080%=      5-min Rain = 0
KPD4 191206Z 20005KT 01/M02 A2993 RMK A01 T00131018  RH  080%=      5-min Rain = 0
KPD4 191207Z 20005KT 01/M02 A2993 RMK A01 T00131018  RH  080%=      5-min Rain = 0
KPD4 191208Z 20005KT 01/M02 A2993 RMK A01 T00141017  RH  080%=      5-min Rain = 0
KPD4 191209Z 20006KT 01/M02 A2993 RMK A01 T00141018  RH  080%=      5-min Rain = 0
KPD4 191210Z 20006KT 01/M02 A2993 RMK A01 T00141017  RH  079%=      5-min Rain = 0
KPD4 191211Z 20006KT 01/M02 A2993 RMK A01 T00141018  RH  079%=      5-min Rain = 0
KPD4 191212Z 20006KT 01/M02 A2992 RMK A01 T00131019  RH  079%=      5-min Rain = 0
KPD4 191213Z 20006KT 01/M02 A2992 RMK A01 T00121020  RH  080%=      5-min Rain = 0
KPD4 191214Z 20006KT 01/M02 A2992 RMK A01 T00111020  RH  080%=      5-min Rain = 0
KPD4 191215Z 20006KT 01/M02 A2992 RMK A01 T00101020  RH  080%=      5-min Rain = 0
KPD4 191216Z 20006KT 01/M02 A2992 RMK A01 T00101020  RH  081%=      5-min Rain = 0
KPD4 191217Z 20006KT 01/M02 A2992 RMK A01 T00101020  RH  081%=      5-min Rain = 0
KPD4 191218Z 20006KT 01/M02 A2992 RMK A01 T00091020  RH  081%=      5-min Rain = 0
KPD4 191219Z 20006KT 01/M02 A2992 RMK A01 T00101019  RH  081%=      5-min Rain = 0
KPD4 191220Z 19006KT 01/M02 A2992 RMK A01 T00101020  RH  081%=      5-min Rain = 0
KPD4 191221Z 19006KT 01/M02 A2992 RMK A01 T00101020  RH  081%=      5-min Rain = 0
KPD4 191222Z 20006KT 01/M02 A2992 RMK A01 T00101020  RH  081%=      5-min Rain = 0
KPD4 191223Z 20006KT 01/M02 A2992 RMK A01 T00101020  RH  080%=      5-min Rain = 0
KPD4 191224Z 20006KT 01/M02 A2992 RMK A01 T00101020  RH  080%=      5-min Rain = 0
KPD4 191225Z 20006KT 01/M02 A2992 RMK A01 T00101020  RH  080%=      5-min Rain = 0
KPD4 191226Z 20006KT 01/M02 A2992 RMK A01 T00091021  RH  081%=      5-min Rain = 0
KPD4 191227Z 20006KT 01/M02 A2992 RMK A01 T00091021  RH  081%=      5-min Rain = 0
KPD4 191228Z 20005KT 01/M02 A2992 RMK A01 T00091021  RH  081%=      5-min Rain = 0
KPD4 191229Z 21006KT 01/M02 A2992 RMK A01 T00081022  RH  080%=      5-min Rain = 0
KPD4 191230Z 21006KT 01/M02 A2992 RMK A01 T00071022  RH  081%=      5-min Rain = 0
KPD4 191231Z 21005KT 01/M02 A2992 RMK A01 T00071022  RH  081%=      5-min Rain = 0
KPD4 191232Z 21006KT 01/M02 A2992 RMK A01 T00071022  RH  081%=      5-min Rain = 0
KPD4 191233Z 21005KT 01/M02 A2992 RMK A01 T00061022  RH  081%=      5-min Rain = 0
KPD4 191234Z 21006KT 01/M02 A2992 RMK A01 T00061022  RH  082%=      5-min Rain = 0
KPD4 191235Z 21006KT 01/M02 A2992 RMK A01 T00051022  RH  082%=      5-min Rain = 0
KPD4 191236Z 21005KT 01/M02 A2992 RMK A01 T00051023  RH  082%=      5-min Rain = 0
KPD4 191237Z 21005KT 00/M02 A2992 RMK A01 T00041023  RH  082%=      5-min Rain = 0
KPD4 191238Z 21006KT 00/M02 A2992 RMK A01 T00041022  RH  082%=      5-min Rain = 0
KPD4 191239Z 20006KT 01/M02 A2992 RMK A01 T00051022  RH  082%=      5-min Rain = 0
KPD4 191240Z 19008KT 01/M02 A2992 RMK A01 T00051023  RH  082%=      5-min Rain = 0
KPD4 191241Z 19006KT 01/M02 A2992 RMK A01 T00061021  RH  082%=      5-min Rain = 0
KPD4 191242Z 19006KT 01/M02 A2992 RMK A01 T00071021  RH  081%=      5-min Rain = 0
KPD4 191243Z 19006KT 01/M02 A2992 RMK A01 T00081021  RH  081%=      5-min Rain = 0
KPD4 191244Z 19007KT 01/M02 A2992 RMK A01 T00081021  RH  081%=      5-min Rain = 0
KPD4 191245Z 20006KT 01/M02 A2992 RMK A01 T00081021  RH  081%=      5-min Rain = 0
KPD4 191246Z 19006KT 01/M02 A2992 RMK A01 T00091021  RH  080%=      5-min Rain = 0
KPD4 191247Z 20006KT 01/M02 A2992 RMK A01 T00091021  RH  080%=      5-min Rain = 0
KPD4 191248Z 20006KT 01/M02 A2992 RMK A01 T00091021  RH  080%=      5-min Rain = 0
KPD4 191249Z 20006KT 01/M02 A2992 RMK A01 T00091021  RH  080%=      5-min Rain = 0
KPD4 191250Z 20006KT 01/M02 A2992 RMK A01 T00091022  RH  080%=      5-min Rain = 0
KPD4 191251Z 21006KT 01/M02 A2992 RMK A01 T00091021  RH  080%=      5-min Rain = 0
KPD4 191252Z 21007KT 01/M02 A2992 RMK A01 T00101021  RH  080%=      5-min Rain = 0
KPD4 191253Z 21007KT 01/M02 A2992 RMK A01 T00091021  RH  080%=      5-min Rain = 0
KPD4 191254Z 21008KT 01/M02 A2992 RMK A01 T00091021  RH  080%=      5-min Rain = 0
KPD4 191255Z 21008KT 01/M02 A2992 RMK A01 T00091020  RH  081%=      5-min Rain = 0
KPD4 191256Z 21008KT 01/M02 A2992 RMK A01 T00101019  RH  081%=      5-min Rain = 0
KPD4 191257Z 21007KT 01/M02 A2992 RMK A01 T00111018  RH  081%=      5-min Rain = 0
KPD4 191258Z 21007KT 01/M02 A2992 RMK A01 T00121017  RH  081%=      5-min Rain = 0
KPD4 191259Z 22007KT 01/M02 A2992 RMK A01 T00141015  RH  081%=      5-min Rain = 0
KPD4 191300Z 22007KT 02/M02 A2992 RMK A01 T00161015  RH  080%=      5-min Rain = 0
KPD4 191301Z 22007KT 02/M01 A2992 RMK A01 T00181013  RH  080%=      5-min Rain = 0
KPD4 191302Z 22007KT 02/M01 A2992 RMK A01 T00201013  RH  079%=      5-min Rain = 0
KPD4 191303Z 22006KT 02/M01 A2992 RMK A01 T00211012  RH  078%=      5-min Rain = 0
KPD4 191304Z 22007KT 02/M01 A2992 RMK A01 T00221013  RH  078%=      5-min Rain = 0
KPD4 191305Z 22007KT 02/M01 A2992 RMK A01 T00231013  RH  077%=      5-min Rain = 0
KPD4 191306Z 22007KT 02/M01 A2992 RMK A01 T00241012  RH  077%=      5-min Rain = 0
KPD4 191307Z 22007KT 03/M01 A2992 RMK A01 T00251011  RH  077%=      5-min Rain = 0
KPD4 191308Z 22007KT 03/M01 A2992 RMK A01 T00271010  RH  076%=      5-min Rain = 0
KPD4 191309Z 21007KT 03/M01 A2992 RMK A01 T00291010  RH  076%=      5-min Rain = 0
KPD4 191310Z 21007KT 03/M01 A2992 RMK A01 T00291010  RH  075%=      5-min Rain = 0
KPD4 191311Z 21006KT 03/M01 A2992 RMK A01 T00301010  RH  075%=      5-min Rain = 0
KPD4 191312Z 21007KT 03/M01 A2992 RMK A01 T00311009  RH  075%=      5-min Rain = 0
KPD4 191313Z 21007KT 03/M01 A2992 RMK A01 T00321009  RH  075%=      5-min Rain = 0
KPD4 191314Z 21007KT 03/M01 A2992 RMK A01 T00331008  RH  074%=      5-min Rain = 0
KPD4 191315Z 21007KT 03/M01 A2992 RMK A01 T00341008  RH  074%=      5-min Rain = 0
KPD4 191316Z 21007KT 04/M01 A2992 RMK A01 T00351008  RH  073%=      5-min Rain = 0
KPD4 191317Z 21007KT 04/M01 A2992 RMK A01 T00351008  RH  073%=      5-min Rain = 0
KPD4 191318Z 21006KT 04/M01 A2992 RMK A01 T00351008  RH  073%=      5-min Rain = 0
KPD4 191319Z 21007KT 04/M01 A2992 RMK A01 T00361008  RH  073%=      5-min Rain = 0
KPD4 191320Z 21006KT 04/M01 A2992 RMK A01 T00371007  RH  073%=      5-min Rain = 0
KPD4 191321Z 20007KT 04/M01 A2992 RMK A01 T00381007  RH  072%=      5-min Rain = 0
KPD4 191322Z 21006KT 04/M01 A2992 RMK A01 T00401005  RH  072%=      5-min Rain = 0
KPD4 191323Z 20007KT 04/M01 A2992 RMK A01 T00411006  RH  071%=      5-min Rain = 0
KPD4 191324Z 20006KT 04/M01 A2992 RMK A01 T00411006  RH  071%=      5-min Rain = 0
KPD4 191325Z 20006KT 04/M01 A2992 RMK A01 T00411006  RH  071%=      5-min Rain = 0
KPD4 191326Z 20007KT 04/M01 A2992 RMK A01 T00421005  RH  071%=      5-min Rain = 0
KPD4 191327Z 20007KT 04/M01 A2992 RMK A01 T00421005  RH  071%=      5-min Rain = 0
KPD4 191328Z 20006KT 04/M01 A2992 RMK A01 T00421005  RH  071%=      5-min Rain = 0
KPD4 191329Z 20006KT 04/M01 A2992 RMK A01 T00431006  RH  071%=      5-min Rain = 0
KPD4 191330Z 20007KT 04/M01 A2992 RMK A01 T00431006  RH  071%=      5-min Rain = 0
KPD4 191331Z 20007KT 04/M01 A2992 RMK A01 T00421006  RH  071%=      5-min Rain = 0
KPD4 191332Z 20006KT 04/M01 A2992 RMK A01 T00421006  RH  071%=      5-min Rain = 0
KPD4 191333Z 20006KT 04/M01 A2992 RMK A01 T00411006  RH  071%=      5-min Rain = 0
KPD4 191334Z 21006KT 04/M01 A2992 RMK A01 T00411006  RH  071%=      5-min Rain = 0
KPD4 191335Z 21006KT 04/M01 A2992 RMK A01 T00411007  RH  071%=      5-min Rain = 0
KPD4 191336Z 21006KT 04/M01 A2992 RMK A01 T00411007  RH  071%=      5-min Rain = 0
KPD4 191337Z 21006KT 04/M01 A2992 RMK A01 T00411007  RH  071%=      5-min Rain = 0
KPD4 191338Z 21006KT 04/M01 A2992 RMK A01 T00401007  RH  071%=      5-min Rain = 0
KPD4 191339Z 21006KT 04/M01 A2992 RMK A01 T00391008  RH  072%=      5-min Rain = 0
KPD4 191340Z 20006KT 04/M01 A2992 RMK A01 T00391008  RH  072%=      5-min Rain = 0
KPD4 191341Z 21006KT 04/M01 A2992 RMK A01 T00391008  RH  072%=      5-min Rain = 0
KPD4 191342Z 20005KT 04/M01 A2992 RMK A01 T00391007  RH  072%=      5-min Rain = 0
KPD4 191343Z 21006KT 04/M01 A2992 RMK A01 T00391008  RH  072%=      5-min Rain = 0
KPD4 191344Z 20005KT 04/M01 A2992 RMK A01 T00391008  RH  072%=      5-min Rain = 0
KPD4 191345Z 21005KT 04/M01 A2992 RMK A01 T00391008  RH  072%=      5-min Rain = 0
KPD4 191346Z 20005KT 04/M01 A2992 RMK A01 T00391008  RH  072%=      5-min Rain = 0
KPD4 191347Z 21005KT 04/M01 A2992 RMK A01 T00391008  RH  071%=      5-min Rain = 0
KPD4 191348Z 20005KT 04/M01 A2992 RMK A01 T00391008  RH  071%=      5-min Rain = 0
KPD4 191349Z 20005KT 04/M01 A2992 RMK A01 T00401008  RH  071%=      5-min Rain = 0
KPD4 191350Z 20004KT 04/M01 A2992 RMK A01 T00401007  RH  071%=      5-min Rain = 0
KPD4 191351Z 20004KT 04/M01 A2992 RMK A01 T00411007  RH  071%=      5-min Rain = 0
KPD4 191352Z 20004KT 04/M01 A2992 RMK A01 T00411007  RH  071%=      5-min Rain = 0
KPD4 191353Z 21004KT 04/M01 A2992 RMK A01 T00411007  RH  071%=      5-min Rain = 0
KPD4 191354Z 21004KT 04/M01 A2992 RMK A01 T00421006  RH  071%=      5-min Rain = 0
KPD4 191355Z 21004KT 04/M01 A2992 RMK A01 T00421006  RH  071%=      5-min Rain = 0
KPD4 191356Z 21004KT 04/M01 A2992 RMK A01 T00421006  RH  071%=      5-min Rain = 0
KPD4 191357Z 21004KT 04/M01 A2992 RMK A01 T00421006  RH  071%=      5-min Rain = 0
KPD4 191358Z 22004KT 04/M01 A2992 RMK A01 T00431005  RH  071%=      5-min Rain = 0
KPD4 191359Z 22004KT 04/M01 A2992 RMK A01 T00441005  RH  071%=      5-min Rain = 0
KPD4 191400Z 22004KT 04/M01 A2992 RMK A01 T00441005  RH  071%=      5-min Rain = 0
KPD4 191401Z 22004KT 04/M01 A2992 RMK A01 T00441005  RH  071%=      5-min Rain = 0
KPD4 191402Z 22004KT 05/M00 A2992 RMK A01 T00451003  RH  071%=      5-min Rain = 0
KPD4 191403Z 22004KT 05/M00 A2992 RMK A01 T00451003  RH  071%=      5-min Rain = 0
KPD4 191404Z 22004KT 05/M00 A2992 RMK A01 T00461003  RH  071%=      5-min Rain = 0
KPD4 191405Z 22005KT 05/M00 A2992 RMK A01 T00461003  RH  070%=      5-min Rain = 0
KPD4 191406Z 22005KT 05/M00 A2992 RMK A01 T00471002  RH  070%=      5-min Rain = 0
KPD4 191407Z 22005KT 05/M00 A2992 RMK A01 T00471002  RH  070%=      5-min Rain = 0
KPD4 191408Z 22005KT 05/M00 A2992 RMK A01 T00481002  RH  070%=      5-min Rain = 0
KPD4 191409Z 22005KT 05/M00 A2992 RMK A01 T00491001  RH  070%=      5-min Rain = 0
KPD4 191410Z 22006KT 05/M00 A2992 RMK A01 T00501001  RH  070%=      5-min Rain = 0
KPD4 191411Z 22005KT 05/00 A2992 RMK A01 T00510000  RH  070%=      5-min Rain = 0
KPD4 191412Z 22005KT 05/00 A2992 RMK A01 T00520001  RH  070%=      5-min Rain = 0
KPD4 191413Z 21006KT 05/00 A2992 RMK A01 T00520001  RH  069%=      5-min Rain = 0
KPD4 191414Z 21005KT 05/00 A2992 RMK A01 T00530000  RH  069%=      5-min Rain = 0
KPD4 191415Z 21005KT 05/00 A2992 RMK A01 T00540001  RH  069%=      5-min Rain = 0
KPD4 191416Z 21006KT 05/00 A2992 RMK A01 T00540001  RH  069%=      5-min Rain = 0
KPD4 191417Z 21005KT 05/00 A2992 RMK A01 T00540001  RH  069%=      5-min Rain = 0
KPD4 191418Z 21006KT 05/00 A2992 RMK A01 T00540001  RH  068%=      5-min Rain = 0
KPD4 191419Z 21006KT 05/00 A2992 RMK A01 T00540001  RH  068%=      5-min Rain = 0
KPD4 191420Z 21006KT 05/00 A2992 RMK A01 T00540001  RH  068%=      5-min Rain = 0
KPD4 191421Z 21005KT 06/00 A2992 RMK A01 T00550001  RH  068%=      5-min Rain = 0
KPD4 191422Z 21006KT 06/00 A2992 RMK A01 T00550001  RH  068%=      5-min Rain = 0
KPD4 191423Z 20006KT 06/00 A2992 RMK A01 T00550000  RH  068%=      5-min Rain = 0
KPD4 191424Z 20006KT 06/00 A2992 RMK A01 T00550001  RH  068%=      5-min Rain = 0
KPD4 191425Z 20007KT 06/00 A2992 RMK A01 T00560001  RH  068%=      5-min Rain = 0
KPD4 191426Z 20006KT 06/00 A2992 RMK A01 T00560001  RH  068%=      5-min Rain = 0
KPD4 191427Z 20007KT 06/00 A2992 RMK A01 T00570001  RH  068%=      5-min Rain = 0
KPD4 191428Z 20007KT 06/00 A2992 RMK A01 T00570001  RH  067%=      5-min Rain = 0
KPD4 191429Z 20006KT 06/00 A2992 RMK A01 T00570001  RH  067%=      5-min Rain = 0
KPD4 191430Z 20007KT 06/00 A2992 RMK A01 T00580001  RH  067%=      5-min Rain = 0
KPD4 191431Z 20007KT 06/00 A2992 RMK A01 T00580001  RH  067%=      5-min Rain = 0
KPD4 191432Z 20008KT 06/00 A2992 RMK A01 T00590001  RH  066%=      5-min Rain = 0
KPD4 191433Z 20007KT 06/00 A2992 RMK A01 T00590001  RH  066%=      5-min Rain = 0
KPD4 191434Z 20007KT 06/00 A2992 RMK A01 T00590001  RH  066%=      5-min Rain = 0
KPD4 191435Z 20007KT 06/00 A2992 RMK A01 T00590002  RH  067%=      5-min Rain = 0
KPD4 191436Z 20008KT 06/00 A2992 RMK A01 T00600002  RH  067%=      5-min Rain = 0
KPD4 191437Z 20008KT 06/00 A2992 RMK A01 T00600001  RH  066%=      5-min Rain = 0
KPD4 191438Z 20007KT 06/00 A2992 RMK A01 T00600001  RH  066%=      5-min Rain = 0
KPD4 191439Z 20007KT 06/00 A2992 RMK A01 T00600002  RH  066%=      5-min Rain = 0
KPD4 191440Z 20007KT 06/00 A2992 RMK A01 T00610003  RH  066%=      5-min Rain = 0
KPD4 191441Z 19007KT 06/00 A2992 RMK A01 T00620004  RH  066%=      5-min Rain = 0
KPD4 191442Z 20007KT 06/00 A2992 RMK A01 T00630004  RH  066%=      5-min Rain = 0
KPD4 191443Z 20007KT 06/00 A2992 RMK A01 T00640004  RH  066%=      5-min Rain = 0
KPD4 191444Z 20007KT 07/00 A2992 RMK A01 T00650004  RH  065%=      5-min Rain = 0
KPD4 191445Z 19007KT 07/00 A2992 RMK A01 T00660004  RH  065%=      5-min Rain = 0
KPD4 191446Z 19006KT 07/00 A2992 RMK A01 T00660004  RH  065%=      5-min Rain = 0
KPD4 191447Z 19007KT 07/01 A2992 RMK A01 T00670005  RH  064%=      5-min Rain = 0
KPD4 191448Z 19007KT 07/01 A2992 RMK A01 T00690005  RH  064%=      5-min Rain = 0
KPD4 191449Z 19007KT 07/01 A2992 RMK A01 T00690005  RH  064%=      5-min Rain = 0
KPD4 191450Z 19007KT 07/01 A2992 RMK A01 T00700005  RH  063%=      5-min Rain = 0
KPD4 191451Z 19007KT 07/01 A2992 RMK A01 T00700005  RH  063%=      5-min Rain = 0
KPD4 191452Z 19005KT 07/01 A2992 RMK A01 T00710006  RH  063%=      5-min Rain = 0
KPD4 191453Z 19006KT 07/01 A2992 RMK A01 T00730007  RH  063%=      5-min Rain = 0
KPD4 191454Z 19007KT 07/01 A2992 RMK A01 T00740008  RH  063%=      5-min Rain = 0
KPD4 191455Z 18005KT 08/01 A2991 RMK A01 T00760009  RH  062%=      5-min Rain = 0
KPD4 191456Z 18006KT 08/01 A2991 RMK A01 T00780011  RH  062%=      5-min Rain = 0
KPD4 191457Z 18006KT 08/01 A2991 RMK A01 T00800009  RH  061%=      5-min Rain = 0
KPD4 191458Z 18005KT 08/01 A2991 RMK A01 T00800010  RH  061%=      5-min Rain = 0
KPD4 191459Z 18007KT 08/01 A2991 RMK A01 T00810010  RH  061%=      5-min Rain = 0
KPD4 191500Z 18006KT 08/01 A2991 RMK A01 T00820010  RH  061%=      5-min Rain = 0
KPD4 191501Z 19006KT 08/01 A2991 RMK A01 T00810009  RH  061%=      5-min Rain = 0
KPD4 191502Z 18006KT 08/01 A2991 RMK A01 T00800009  RH  061%=      5-min Rain = 0
KPD4 191503Z 18005KT 08/01 A2991 RMK A01 T00810011  RH  061%=      5-min Rain = 0
KPD4 191504Z 18006KT 08/01 A2991 RMK A01 T00830010  RH  060%=      5-min Rain = 0
KPD4 191505Z 18006KT 08/01 A2991 RMK A01 T00830009  RH  060%=      5-min Rain = 0
KPD4 191506Z 18006KT 08/01 A2991 RMK A01 T00830010  RH  060%=      5-min Rain = 0
KPD4 191507Z 18006KT 09/01 A2991 RMK A01 T00850011  RH  060%=      5-min Rain = 0
KPD4 191508Z 18007KT 09/01 A2991 RMK A01 T00860012  RH  060%=      5-min Rain = 0
KPD4 191509Z 18008KT 09/01 A2991 RMK A01 T00880013  RH  059%=      5-min Rain = 0
KPD4 191510Z 17008KT 09/01 A2991 RMK A01 T00900014  RH  059%=      5-min Rain = 0
KPD4 191511Z 17008KT 09/02 A2991 RMK A01 T00930016  RH  059%=      5-min Rain = 0
KPD4 191512Z 18008KT 10/02 A2991 RMK A01 T00960017  RH  058%=      5-min Rain = 0
KPD4 191513Z 18008KT 10/02 A2991 RMK A01 T00980017  RH  057%=      5-min Rain = 0
KPD4 191514Z 18008KT 10/02 A2991 RMK A01 T00990017  RH  057%=      5-min Rain = 0
KPD4 191515Z 18009KT 10/02 A2991 RMK A01 T01000018  RH  056%=      5-min Rain = 0
KPD4 191516Z 18011KT 10/02 A2991 RMK A01 T01000017  RH  056%=      5-min Rain = 0
KPD4 191517Z 18009KT 10/02 A2991 RMK A01 T01010018  RH  056%=      5-min Rain = 0
KPD4 191518Z 18008KT 10/02 A2991 RMK A01 T01030020  RH  056%=      5-min Rain = 0
KPD4 191519Z 18008KT 11/02 A2991 RMK A01 T01060020  RH  055%=      5-min Rain = 0
KPD4 191520Z 17008KT 11/02 A2991 RMK A01 T01070020  RH  055%=      5-min Rain = 0
KPD4 191521Z 19006KT 11/02 A2991 RMK A01 T01080020  RH  055%=      5-min Rain = 0
KPD4 191522Z 18008KT 11/02 A2991 RMK A01 T01080020  RH  054%=      5-min Rain = 0
KPD4 191523Z 18008KT 11/02 A2991 RMK A01 T01090020  RH  054%=      5-min Rain = 0
KPD4 191524Z 18007KT 11/02 A2991 RMK A01 T01100021  RH  054%=      5-min Rain = 0
KPD4 191525Z 18007KT 11/02 A2991 RMK A01 T01120021  RH  054%=      5-min Rain = 0
KPD4 191526Z 17009KT 11/02 A2991 RMK A01 T01130023  RH  054%=      5-min Rain = 0
KPD4 191527Z 17011KT 12/03 A2991 RMK A01 T01180026  RH  053%=      5-min Rain = 0
KPD4 191528Z 18012KT 12/03 A2991 RMK A01 T01200026  RH  052%=      5-min Rain = 0
KPD4 191529Z 18013KT 12/03 A2991 RMK A01 T01240028  RH  052%=      5-min Rain = 0
KPD4 191530Z 18011G16KT 13/03 A2991 RMK A01 T01270029  RH  051%=      5-min Rain = 0
KPD4 191531Z 17014KT 13/03 A2991 RMK A01 T01290028  RH  050%=      5-min Rain = 0
KPD4 191532Z 17011KT 13/03 A2991 RMK A01 T01290028  RH  050%=      5-min Rain = 0
KPD4 191533Z 17012KT 13/03 A2991 RMK A01 T01320030  RH  050%=      5-min Rain = 0
KPD4 191534Z 17012KT 13/03 A2991 RMK A01 T01340030  RH  049%=      5-min Rain = 0
KPD4 191535Z 18011KT 14/03 A2991 RMK A01 T01350029  RH  049%=      5-min Rain = 0
KPD4 191536Z 18010KT 14/03 A2991 RMK A01 T01370031  RH  049%=      5-min Rain = 0
KPD4 191537Z 17011KT 14/03 A2991 RMK A01 T01390030  RH  048%=      5-min Rain = 0
KPD4 191538Z 16011KT 14/03 A2991 RMK A01 T01410031  RH  047%=      5-min Rain = 0
KPD4 191539Z 16012KT 14/03 A2991 RMK A01 T01440031  RH  047%=      5-min Rain = 0
KPD4 191540Z 17012KT 15/03 A2991 RMK A01 T01450030  RH  046%=      5-min Rain = 0
KPD4 191541Z 17011KT 15/03 A2991 RMK A01 T01470032  RH  046%=      5-min Rain = 0
KPD4 191542Z 17014KT 15/03 A299 RMK A01 T01480030  RH  045%=      5-min Rain = 0
KPD4 191543Z 18013KT 15/03 A299 RMK A01 T01490031  RH  045%=      5-min Rain = 0
KPD4 191544Z 17017KT 15/03 A299 RMK A01 T01500030  RH  044%=      5-min Rain = 0
KPD4 191545Z 16015KT 15/03 A299 RMK A01 T01510029  RH  044%=      5-min Rain = 0
KPD4 191546Z 16017KT 15/03 A299 RMK A01 T01510029  RH  044%=      5-min Rain = 0
KPD4 191547Z 17017KT 15/03 A299 RMK A01 T01520028  RH  043%=      5-min Rain = 0
KPD4 191548Z 17019KT 15/03 A299 RMK A01 T01500027  RH  043%=      5-min Rain = 0
KPD4 191549Z 17017KT 15/03 A299 RMK A01 T01490027  RH  044%=      5-min Rain = 0
KPD4 191550Z 17016KT 15/03 A299 RMK A01 T01490027  RH  044%=      5-min Rain = 0
KPD4 191551Z 18017KT 15/03 A299 RMK A01 T01500027  RH  044%=      5-min Rain = 0
KPD4 191552Z 17014KT 15/03 A299 RMK A01 T01510028  RH  043%=      5-min Rain = 0
KPD4 191553Z 17017KT 15/03 A299 RMK A01 T01520028  RH  043%=      5-min Rain = 0
KPD4 191554Z 17019KT 15/03 A299 RMK A01 T01530027  RH  043%=      5-min Rain = 0
KPD4 191555Z 17020KT 15/03 A299 RMK A01 T01530027  RH  043%=      5-min Rain = 0
KPD4 191556Z 17017KT 15/03 A299 RMK A01 T01520027  RH  043%=      5-min Rain = 0
KPD4 191557Z 17015G20KT 15/03 A299 RMK A01 T01540028  RH  043%=      5-min Rain = 0
KPD4 191558Z 17015G20KT 16/03 A299 RMK A01 T01560027  RH  042%=      5-min Rain = 0
KPD4 191559Z 17014KT 16/03 A299 RMK A01 T01580029  RH  042%=      5-min Rain = 0
KPD4 191600Z 17018G23KT 16/03 A299 RMK A01 T01590028  RH  041%=      5-min Rain = 0
KPD4 191601Z 17019G25KT 16/03 A299 RMK A01 T01590027  RH  041%=      5-min Rain = 0
KPD4 191602Z 17018G23KT 16/03 A299 RMK A01 T01580027  RH  041%=      5-min Rain = 0
KPD4 191603Z 16017KT 16/03 A299 RMK A01 T01580026  RH  041%=      5-min Rain = 0
KPD4 191604Z 17015KT 16/03 A299 RMK A01 T01590027  RH  041%=      5-min Rain = 0
KPD4 191605Z 18017KT 16/03 A299 RMK A01 T01600027  RH  041%=      5-min Rain = 0
KPD4 191606Z 17015KT 16/03 A299 RMK A01 T01610028  RH  041%=      5-min Rain = 0
KPD4 191607Z 18012KT 16/03 A299 RMK A01 T01610028  RH  041%=      5-min Rain = 0
KPD4 191608Z 17013KT 16/03 A299 RMK A01 T01630030  RH  041%=      5-min Rain = 0
KPD4 191609Z 17014KT 16/03 A299 RMK A01 T01640030  RH  040%=      5-min Rain = 0
KPD4 191610Z 18015KT 17/03 A299 RMK A01 T01650029  RH  040%=      5-min Rain = 0
KPD4 191611Z 18019KT 16/03 A2989 RMK A01 T01640029  RH  040%=      5-min Rain = 0
KPD4 191612Z 18017KT 16/03 A2989 RMK A01 T01630027  RH  040%=      5-min Rain = 0
KPD4 191613Z 18017KT 16/03 A2989 RMK A01 T01630027  RH  040%=      5-min Rain = 0
KPD4 191614Z 17016KT 16/03 A2989 RMK A01 T01630028  RH  040%=      5-min Rain = 0
KPD4 191615Z 16016KT 16/03 A2989 RMK A01 T01640027  RH  040%=      5-min Rain = 0
KPD4 191616Z 17015KT 16/03 A2989 RMK A01 T01640027  RH  040%=      5-min Rain = 0
KPD4 191617Z 18015KT 17/03 A2989 RMK A01 T01650028  RH  040%=      5-min Rain = 0
KPD4 191618Z 17017KT 17/03 A2989 RMK A01 T01650027  RH  039%=      5-min Rain = 0
KPD4 191619Z 17016KT 17/03 A2989 RMK A01 T01650027  RH  039%=      5-min Rain = 0
KPD4 191620Z 17015KT 17/03 A2989 RMK A01 T01660028  RH  039%=      5-min Rain = 0
KPD4 191621Z 18015KT 17/03 A2989 RMK A01 T01670028  RH  039%=      5-min Rain = 0
KPD4 191622Z 19017KT 17/03 A2989 RMK A01 T01670028  RH  039%=      5-min Rain = 0
KPD4 191623Z 19015KT 17/03 A2989 RMK A01 T01670028  RH  039%=      5-min Rain = 0
KPD4 191624Z 18014KT 17/03 A2989 RMK A01 T01670028  RH  039%=      5-min Rain = 0
KPD4 191625Z 18016KT 17/03 A2989 RMK A01 T01680029  RH  039%=      5-min Rain = 0
KPD4 191626Z 17017KT 17/03 A2989 RMK A01 T01690028  RH  039%=      5-min Rain = 0
KPD4 191627Z 18014KT 17/03 A2989 RMK A01 T01680028  RH  039%=      5-min Rain = 0
KPD4 191628Z 18015KT 17/03 A2989 RMK A01 T01700030  RH  039%=      5-min Rain = 0
KPD4 191629Z 17017KT 17/03 A2989 RMK A01 T01720030  RH  038%=      5-min Rain = 0
KPD4 191630Z 17019KT 17/03 A2989 RMK A01 T01730025  RH  037%=      5-min Rain = 0
KPD4 191631Z 17020KT 17/02 A2989 RMK A01 T01710024  RH  037%=      5-min Rain = 0
KPD4 191632Z 17020KT 17/03 A2989 RMK A01 T01710025  RH  037%=      5-min Rain = 0
KPD4 191633Z 17018KT 17/02 A2989 RMK A01 T01710024  RH  037%=      5-min Rain = 0
KPD4 191634Z 17021G26KT 17/03 A2989 RMK A01 T01710025  RH  038%=      5-min Rain = 0
KPD4 191635Z 17021G26KT 17/02 A2989 RMK A01 T01710024  RH  037%=      5-min Rain = 0
KPD4 191636Z 17020KT 17/02 A2989 RMK A01 T01710024  RH  037%=      5-min Rain = 0
KPD4 191637Z 17021KT 17/02 A2989 RMK A01 T01710024  RH  037%=      5-min Rain = 0
KPD4 191638Z 18023KT 17/02 A2989 RMK A01 T01710023  RH  037%=      5-min Rain = 0
KPD4 191639Z 18021KT 17/02 A2988 RMK A01 T01710024  RH  037%=      5-min Rain = 0
KPD4 191640Z 18021G26KT 17/02 A2988 RMK A01 T01710023  RH  037%=      5-min Rain = 0
KPD4 191641Z 18020KT 17/02 A2988 RMK A01 T01710023  RH  037%=      5-min Rain = 0
KPD4 191642Z 18020KT 17/02 A2988 RMK A01 T01730024  RH  037%=      5-min Rain = 0
KPD4 191643Z 18021KT 17/02 A2988 RMK A01 T01730024  RH  037%=      5-min Rain = 0
KPD4 191644Z 18019KT 17/02 A2988 RMK A01 T01720024  RH  037%=      5-min Rain = 0
KPD4 191645Z 19021KT 17/02 A2988 RMK A01 T01730024  RH  037%=      5-min Rain = 0
KPD4 191646Z 18022KT 17/02 A2988 RMK A01 T01730023  RH  037%=      5-min Rain = 0
KPD4 191647Z 18019KT 17/02 A2988 RMK A01 T01730024  RH  037%=      5-min Rain = 0
KPD4 191648Z 18018G23KT 18/03 A2988 RMK A01 T01750025  RH  037%=      5-min Rain = 0
KPD4 191649Z 18019KT 18/03 A2988 RMK A01 T01760025  RH  036%=      5-min Rain = 0
KPD4 191650Z 18020KT 18/03 A2988 RMK A01 T01780025  RH  036%=      5-min Rain = 0
KPD4 191651Z 19016KT 18/03 A2988 RMK A01 T01780025  RH  036%=      5-min Rain = 0
KPD4 191652Z 19019KT 18/02 A2988 RMK A01 T01790024  RH  036%=      5-min Rain = 0
KPD4 191653Z 19021KT 18/02 A2988 RMK A01 T01790023  RH  035%=      5-min Rain = 0
KPD4 191654Z 19021KT 18/02 A2988 RMK A01 T01780023  RH  035%=      5-min Rain = 0
KPD4 191655Z 18019KT 18/02 A2988 RMK A01 T01780024  RH  036%=      5-min Rain = 0
KPD4 191656Z 18016KT 18/02 A2988 RMK A01 T01800024  RH  035%=      5-min Rain = 0
KPD4 191657Z 19018KT 18/03 A2988 RMK A01 T01830025  RH  035%=      5-min Rain = 0
KPD4 191658Z 19019G24KT 18/02 A2987 RMK A01 T01830023  RH  034%=      5-min Rain = 0
KPD4 191659Z 18021KT 18/02 A2987 RMK A01 T01810022  RH  035%=      5-min Rain = 0
KPD4 191700Z 18019KT 18/02 A2987 RMK A01 T01810022  RH  035%=      5-min Rain = 0
KPD4 191701Z 18020G27KT 18/02 A2987 RMK A01 T01820022  RH  034%=      5-min Rain = 0
KPD4 191702Z 18021KT 18/02 A2987 RMK A01 T01840021  RH  034%=      5-min Rain = 0
KPD4 191703Z 18018KT 18/02 A2987 RMK A01 T01840020  RH  034%=      5-min Rain = 0
KPD4 191704Z 18019KT 19/02 A2987 RMK A01 T01850022  RH  034%=      5-min Rain = 0
KPD4 191705Z 18019KT 19/02 A2987 RMK A01 T01850021  RH  033%=      5-min Rain = 0
KPD4 191706Z 18020KT 19/02 A2987 RMK A01 T01860021  RH  033%=      5-min Rain = 0
KPD4 191707Z 18019KT 19/02 A2987 RMK A01 T01870021  RH  033%=      5-min Rain = 0
KPD4 191708Z 17017KT 19/02 A2987 RMK A01 T01870023  RH  033%=      5-min Rain = 0
KPD4 191709Z 18015KT 19/02 A2987 RMK A01 T01880024  RH  033%=      5-min Rain = 0
KPD4 191710Z 18016KT 19/02 A2987 RMK A01 T01920024  RH  033%=      5-min Rain = 0
KPD4 191711Z 19018G23KT 19/02 A2987 RMK A01 T01930023  RH  032%=      5-min Rain = 0
KPD4 191712Z 19019KT 19/02 A2987 RMK A01 T01930023  RH  032%=      5-min Rain = 0
KPD4 191713Z 18018KT 19/02 A2987 RMK A01 T01920021  RH  032%=      5-min Rain = 0
KPD4 191714Z 19021KT 19/02 A2987 RMK A01 T01920022  RH  032%=      5-min Rain = 0
KPD4 191715Z 18020KT 19/02 A2987 RMK A01 T01910020  RH  032%=      5-min Rain = 0
KPD4 191716Z 18020KT 19/02 A2987 RMK A01 T01900020  RH  032%=      5-min Rain = 0
KPD4 191717Z 18019KT 19/02 A2987 RMK A01 T01910021  RH  032%=      5-min Rain = 0
KPD4 191718Z 18017KT 19/02 A2987 RMK A01 T01920021  RH  032%=      5-min Rain = 0
KPD4 191719Z 18015KT 19/02 A2986 RMK A01 T01940021  RH  032%=      5-min Rain = 0
KPD4 191720Z 18019KT 20/02 A2986 RMK A01 T01960022  RH  031%=      5-min Rain = 0
KPD4 191721Z 18018KT 20/02 A2986 RMK A01 T01960021  RH  031%=      5-min Rain = 0
KPD4 191722Z 17018KT 20/02 A2986 RMK A01 T01970021  RH  031%=      5-min Rain = 0
KPD4 191723Z 19019KT 20/02 A2986 RMK A01 T01990021  RH  030%=      5-min Rain = 0
KPD4 191724Z 17015G20KT 20/02 A2986 RMK A01 T02000020  RH  030%=      5-min Rain = 0
KPD4 191725Z 18017KT 20/02 A2986 RMK A01 T02000021  RH  030%=      5-min Rain = 0
KPD4 191726Z 18019G24KT 20/02 A2986 RMK A01 T02010020  RH  030%=      5-min Rain = 0
KPD4 191727Z 18022G27KT 20/02 A2986 RMK A01 T02000018  RH  030%=      5-min Rain = 0
KPD4 191728Z 17023KT 20/02 A2986 RMK A01 T01980017  RH  030%=      5-min Rain = 0
KPD4 191729Z 17021KT 20/02 A2986 RMK A01 T01960016  RH  030%=      5-min Rain = 0
KPD4 191730Z 17022KT 20/02 A2986 RMK A01 T01960016  RH  030%=      5-min Rain = 0
KPD4 191731Z 17020KT 20/02 A2986 RMK A01 T01970016  RH  030%=      5-min Rain = 0
KPD4 191732Z 17019KT 20/02 A2986 RMK A01 T01970018  RH  030%=      5-min Rain = 0
KPD4 191733Z 18019G24KT 20/02 A2985 RMK A01 T01990018  RH  030%=      5-min Rain = 0
KPD4 191734Z 19021KT 20/02 A2985 RMK A01 T02010016  RH  029%=      5-min Rain = 0
KPD4 191735Z 19022KT 20/01 A2985 RMK A01 T02010014  RH  029%=      5-min Rain = 0
KPD4 191736Z 19021KT 20/01 A2985 RMK A01 T02000013  RH  029%=      5-min Rain = 0
KPD4 191737Z 18020G25KT 20/01 A2985 RMK A01 T02010014  RH  029%=      5-min Rain = 0
KPD4 191738Z 17019G25KT 20/01 A2985 RMK A01 T02030014  RH  029%=      5-min Rain = 0
KPD4 191739Z 17020G28KT 20/02 A2985 RMK A01 T02040015  RH  028%=      5-min Rain = 0
KPD4 191740Z 17023G28KT 21/01 A2985 RMK A01 T02060013  RH  028%=      5-min Rain = 0
KPD4 191741Z 18023KT 21/01 A2985 RMK A01 T02050012  RH  028%=      5-min Rain = 0
KPD4 191742Z 18023KT 20/01 A2985 RMK A01 T02030012  RH  028%=      5-min Rain = 0
KPD4 191743Z 19021KT 20/01 A2985 RMK A01 T02030013  RH  028%=      5-min Rain = 0
KPD4 191744Z 18020KT 20/01 A2985 RMK A01 T02040013  RH  028%=      5-min Rain = 0
KPD4 191745Z 17017KT 21/02 A2985 RMK A01 T02050015  RH  028%=      5-min Rain = 0
KPD4 191746Z 17022G27KT 21/01 A2984 RMK A01 T02090014  RH  027%=      5-min Rain = 0
KPD4 191747Z 16023G28KT 21/01 A2984 RMK A01 T02080011  RH  027%=      5-min Rain = 0
KPD4 191748Z 17021G27KT 21/01 A2984 RMK A01 T02070012  RH  027%=      5-min Rain = 0
KPD4 191749Z 18022KT 21/01 A2984 RMK A01 T02070013  RH  028%=      5-min Rain = 0
KPD4 191750Z 17021KT 21/01 A2984 RMK A01 T02080013  RH  027%=      5-min Rain = 0
KPD4 191751Z 17019G24KT 21/01 A2984 RMK A01 T02090013  RH  027%=      5-min Rain = 0
KPD4 191752Z 17019KT 21/01 A2984 RMK A01 T02090013  RH  027%=      5-min Rain = 0
KPD4 191753Z 18021G28KT 21/01 A2984 RMK A01 T02110013  RH  027%=      5-min Rain = 0
KPD4 191754Z 18024KT 21/01 A2984 RMK A01 T02110009  RH  026%=      5-min Rain = 0
KPD4 191755Z 18022KT 21/01 A2984 RMK A01 T02110009  RH  026%=      5-min Rain = 0
KPD4 191756Z 19021KT 21/01 A2984 RMK A01 T02110010  RH  026%=      5-min Rain = 0
KPD4 191757Z 19023KT 21/01 A2984 RMK A01 T02100011  RH  027%=      5-min Rain = 0
KPD4 191758Z 19019G26KT 21/01 A2984 RMK A01 T02100011  RH  027%=      5-min Rain = 0
KPD4 191759Z 17022G29KT 21/01 A2984 RMK A01 T02120012  RH  026%=      5-min Rain = 0
KPD4 191800Z 17024KT 21/01 A2984 RMK A01 T02130009  RH  026%=      5-min Rain = 0
KPD4 191801Z 17023KT 21/01 A2984 RMK A01 T02130010  RH  026%=      5-min Rain = 0
KPD4 191802Z 18021KT 21/01 A2984 RMK A01 T02130009  RH  026%=      5-min Rain = 0
KPD4 191803Z 18021KT 21/01 A2983 RMK A01 T02130009  RH  026%=      5-min Rain = 0
KPD4 191804Z 18020KT 21/01 A2984 RMK A01 T02130010  RH  026%=      5-min Rain = 0
KPD4 191805Z 18019KT 21/01 A2983 RMK A01 T02140011  RH  026%=      5-min Rain = 0
KPD4 191806Z 18023KT 22/01 A2983 RMK A01 T02150010  RH  026%=      5-min Rain = 0
KPD4 191807Z 18020KT 22/01 A2983 RMK A01 T02150008  RH  025%=      5-min Rain = 0
KPD4 191808Z 17020G26KT 22/01 A2983 RMK A01 T02150008  RH  025%=      5-min Rain = 0
KPD4 191809Z 17026KT 22/01 A2983 RMK A01 T02160007  RH  025%=      5-min Rain = 0
KPD4 191810Z 17024G29KT 22/01 A2983 RMK A01 T02160006  RH  025%=      5-min Rain = 0
KPD4 191811Z 17023KT 22/01 A2983 RMK A01 T02160006  RH  025%=      5-min Rain = 0
KPD4 191812Z 17021G26KT 22/01 A2983 RMK A01 T02150005  RH  025%=      5-min Rain = 0
KPD4 191813Z 18020KT 22/01 A2983 RMK A01 T02170007  RH  025%=      5-min Rain = 0
KPD4 191814Z 18023G29KT 22/01 A2982 RMK A01 T02190006  RH  024%=      5-min Rain = 0
KPD4 191815Z 18024KT 22/01 A2982 RMK A01 T02180005  RH  024%=      5-min Rain = 0
KPD4 191816Z 18023KT 22/00 A2982 RMK A01 T02180004  RH  024%=      5-min Rain = 0
KPD4 191817Z 18018G23KT 22/01 A2982 RMK A01 T02190005  RH  024%=      5-min Rain = 0
KPD4 191818Z 19020KT 22/01 A2982 RMK A01 T02220005  RH  024%=      5-min Rain = 0
KPD4 191819Z 17019G24KT 22/00 A2982 RMK A01 T02230004  RH  023%=      5-min Rain = 0
KPD4 191820Z 18018KT 23/00 A2982 RMK A01 T02250004  RH  023%=      5-min Rain = 0
KPD4 191821Z 18021G27KT 23/00 A2982 RMK A01 T02270004  RH  023%=      5-min Rain = 0
KPD4 191822Z 19021G26KT 23/00 A2982 RMK A01 T02270002  RH  023%=      5-min Rain = 0
KPD4 191823Z 17020G28KT 23/00 A2982 RMK A01 T02280002  RH  022%=      5-min Rain = 0
KPD4 191824Z 17025KT 23/00 A2982 RMK A01 T02280000  RH  022%=      5-min Rain = 0
KPD4 191825Z 18023KT 23/M00 A2981 RMK A01 T02271001  RH  022%=      5-min Rain = 0
KPD4 191826Z 18018KT 23/00 A2982 RMK A01 T02250000  RH  022%=      5-min Rain = 0
KPD4 191827Z 18023KT 23/00 A2981 RMK A01 T02290001  RH  022%=      5-min Rain = 0
KPD4 191828Z 17023G30KT 23/00 A2981 RMK A01 T022900-0  RH  022%=      5-min Rain = 0
KPD4 191829Z 18025KT 23/M00 A2981 RMK A01 T02291001  RH  022%=      5-min Rain = 0
KPD4 191830Z 18023KT 23/M00 A2981 RMK A01 T02271002  RH  022%=      5-min Rain = 0
KPD4 191831Z 17020KT 23/M00 A2981 RMK A01 T02271002  RH  022%=      5-min Rain = 0
KPD4 191832Z 17021KT 23/M00 A2981 RMK A01 T02291001  RH  022%=      5-min Rain = 0
KPD4 191833Z 17024KT 23/M00 A2981 RMK A01 T02301001  RH  022%=      5-min Rain = 0
KPD4 191834Z 17024KT 23/M00 A2981 RMK A01 T02291001  RH  022%=      5-min Rain = 0
KPD4 191835Z 17024KT 23/M00 A2981 RMK A01 T02281002  RH  022%=      5-min Rain = 0
KPD4 191836Z 18022G28KT 23/M00 A2981 RMK A01 T02271002  RH  022%=      5-min Rain = 0
KPD4 191837Z 17020KT 23/M00 A2981 RMK A01 T02291001  RH  022%=      5-min Rain = 0
KPD4 191838Z 17018KT 23/00 A2981 RMK A01 T023100-0  RH  022%=      5-min Rain = 0
KPD4 191839Z 17017KT 23/00 A2981 RMK A01 T02320000  RH  022%=      5-min Rain = 0
KPD4 191840Z 17022G29KT 23/00 A298 RMK A01 T023400-0  RH  021%=      5-min Rain = 0
KPD4 191841Z 17022KT 23/M01 A298 RMK A01 T02311005  RH  021%=      5-min Rain = 0
KPD4 191842Z 18017G25KT 23/M00 A298 RMK A01 T02301003  RH  021%=      5-min Rain = 0
KPD4 191843Z 17018KT 23/M00 A298 RMK A01 T02311003  RH  021%=      5-min Rain = 0
KPD4 191844Z 17020G25KT 23/M00 A298 RMK A01 T02331002  RH  021%=      5-min Rain = 0
KPD4 191845Z 17018KT 23/M00 A298 RMK A01 T02341002  RH  021%=      5-min Rain = 0
KPD4 191846Z 18023KT 24/M00 A298 RMK A01 T02371002  RH  021%=      5-min Rain = 0
KPD4 191847Z 18023G30KT 24/M01 A298 RMK A01 T02361005  RH  020%=      5-min Rain = 0
KPD4 191848Z 17023KT 23/M01 A298 RMK A01 T02341005  RH  020%=      5-min Rain = 0
KPD4 191849Z 17023G29KT 23/M01 A298 RMK A01 T02331005  RH  021%=      5-min Rain = 0
KPD4 191850Z 17021KT 23/M00 A298 RMK A01 T02341004  RH  021%=      5-min Rain = 0
KPD4 191851Z 17021G26KT 23/M00 A298 RMK A01 T02341004  RH  021%=      5-min Rain = 0
KPD4 191852Z 17021G26KT 24/M00 A298 RMK A01 T02351004  RH  021%=      5-min Rain = 0
KPD4 191853Z 17021KT 24/M01 A298 RMK A01 T02371005  RH  020%=      5-min Rain = 0
KPD4 191854Z 17020KT 24/M01 A298 RMK A01 T02361006  RH  020%=      5-min Rain = 0
KPD4 191855Z 18020KT 24/M01 A2979 RMK A01 T02371006  RH  020%=      5-min Rain = 0
KPD4 191856Z 17023G29KT 24/M01 A2979 RMK A01 T02371006  RH  020%=      5-min Rain = 0
KPD4 191857Z 17025KT 24/M01 A2979 RMK A01 T02371007  RH  020%=      5-min Rain = 0
KPD4 191858Z 17024G29KT 23/M01 A2979 RMK A01 T02341008  RH  020%=      5-min Rain = 0
KPD4 191859Z 18023G28KT 23/M01 A2979 RMK A01 T02321008  RH  020%=      5-min Rain = 0
KPD4 191900Z 19022KT 23/M01 A2979 RMK A01 T02321008  RH  020%=      5-min Rain = 0
KPD4 191901Z 19022G27KT 23/M01 A2979 RMK A01 T02341007  RH  020%=      5-min Rain = 0
KPD4 191902Z 18021G26KT 24/M01 A2979 RMK A01 T02361007  RH  020%=      5-min Rain = 0
KPD4 191903Z 18021KT 24/M01 A2979 RMK A01 T02381006  RH  020%=      5-min Rain = 0
KPD4 191904Z 18021KT 24/M01 A2979 RMK A01 T02391006  RH  020%=      5-min Rain = 0
KPD4 191905Z 17018KT 24/M01 A2979 RMK A01 T02391006  RH  020%=      5-min Rain = 0
KPD4 191906Z 18022G27KT 24/M01 A2979 RMK A01 T02401005  RH  020%=      5-min Rain = 0
KPD4 191907Z 18024KT 24/M01 A2979 RMK A01 T02401006  RH  020%=      5-min Rain = 0
KPD4 191908Z 18021G26KT 24/M01 A2979 RMK A01 T02401007  RH  019%=      5-min Rain = 0
KPD4 191909Z 17023KT 24/M01 A2979 RMK A01 T02381008  RH  020%=      5-min Rain = 0
KPD4 191910Z 17021KT 24/M01 A2979 RMK A01 T02361009  RH  020%=      5-min Rain = 0
KPD4 191911Z 17022KT 24/M01 A2979 RMK A01 T02361008  RH  020%=      5-min Rain = 0
KPD4 191912Z 18020G27KT 24/M01 A2978 RMK A01 T02361008  RH  020%=      5-min Rain = 0
KPD4 191913Z 18025KT 24/M01 A2978 RMK A01 T02391008  RH  019%=      5-min Rain = 0
KPD4 191914Z 18022KT 24/M01 A2978 RMK A01 T02381009  RH  020%=      5-min Rain = 0
KPD4 191915Z 19022G28KT 24/M01 A2978 RMK A01 T02371008  RH  020%=      5-min Rain = 0
KPD4 191916Z 18021G26KT 24/M01 A2978 RMK A01 T02381007  RH  020%=      5-min Rain = 0
KPD4 191917Z 18024G29KT 24/M01 A2978 RMK A01 T02401008  RH  019%=      5-min Rain = 0
KPD4 191918Z 18022KT 24/M01 A2978 RMK A01 T02401010  RH  019%=      5-min Rain = 0
KPD4 191919Z 19024KT 24/M01 A2978 RMK A01 T02401009  RH  019%=      5-min Rain = 0
KPD4 191920Z 19021KT 24/M01 A2978 RMK A01 T02401009  RH  019%=      5-min Rain = 0
KPD4 191921Z 19019G24KT 24/M01 A2978 RMK A01 T02401009  RH  019%=      5-min Rain = 0
KPD4 191922Z 17024KT 24/M01 A2978 RMK A01 T02411010  RH  019%=      5-min Rain = 0
KPD4 191923Z 17023G32KT 24/M01 A2978 RMK A01 T02401011  RH  019%=      5-min Rain = 0
KPD4 191924Z 18023KT 24/M01 A2978 RMK A01 T02401010  RH  019%=      5-min Rain = 0
KPD4 191925Z 18019G24KT 24/M01 A2978 RMK A01 T02421009  RH  019%=      5-min Rain = 0
KPD4 191926Z 19020G26KT 24/M01 A2978 RMK A01 T02441009  RH  019%=      5-min Rain = 0
KPD4 191927Z 19020KT 24/M01 A2978 RMK A01 T02441009  RH  019%=      5-min Rain = 0
KPD4 191928Z 19020KT 24/M01 A2978 RMK A01 T02441009  RH  019%=      5-min Rain = 0
KPD4 191929Z 18024KT 24/M01 A2978 RMK A01 T02411011  RH  019%=      5-min Rain = 0
KPD4 191930Z 18021KT 24/M01 A2977 RMK A01 T02401010  RH  019%=      5-min Rain = 0
KPD4 191931Z 18021KT 24/M01 A2977 RMK A01 T02411009  RH  019%=      5-min Rain = 0
KPD4 191932Z 19022KT 24/M01 A2977 RMK A01 T02441007  RH  019%=      5-min Rain = 0
KPD4 191933Z 18022KT 25/M01 A2977 RMK A01 T02471007  RH  019%=      5-min Rain = 0
KPD4 191934Z 19022KT 25/M01 A2977 RMK A01 T02481008  RH  018%=      5-min Rain = 0
KPD4 191935Z 19022KT 25/M01 A2977 RMK A01 T02471009  RH  018%=      5-min Rain = 0
KPD4 191936Z 19018KT 25/M01 A2977 RMK A01 T02451009  RH  019%=      5-min Rain = 0
KPD4 191937Z 19019KT 24/M01 A2977 RMK A01 T02431009  RH  019%=      5-min Rain = 0
KPD4 191938Z 19023KT 24/M01 A2977 RMK A01 T02401010  RH  019%=      5-min Rain = 0
KPD4 191939Z 19020KT 24/M01 A2977 RMK A01 T02381009  RH  019%=      5-min Rain = 0
KPD4 191940Z 19022G27KT 24/M01 A2977 RMK A01 T02401007  RH  019%=      5-min Rain = 0
KPD4 191941Z 19023G28KT 24/M01 A2977 RMK A01 T02401009  RH  019%=      5-min Rain = 0
KPD4 191942Z 20024KT 24/M01 A2977 RMK A01 T02371009  RH  019%=      5-min Rain = 0
KPD4 191943Z 19019G26KT 24/M01 A2977 RMK A01 T02401006  RH  020%=      5-min Rain = 0
KPD4 191944Z 19023G28KT 24/M01 A2977 RMK A01 T02441006  RH  019%=      5-min Rain = 0
KPD4 191945Z 18020G26KT 25/M01 A2977 RMK A01 T02461006  RH  019%=      5-min Rain = 0
KPD4 191946Z 19021G26KT 25/M00 A2977 RMK A01 T02491004  RH  019%=      5-min Rain = 0
KPD4 191947Z 19024G29KT 25/M00 A2977 RMK A01 T02511004  RH  019%=      5-min Rain = 0
KPD4 191948Z 18026KT 25/M01 A2977 RMK A01 T02511005  RH  019%=      5-min Rain = 0
KPD4 191949Z 19024G29KT 25/M01 A2977 RMK A01 T02491006  RH  019%=      5-min Rain = 0
KPD4 191950Z 19020KT 25/M00 A2977 RMK A01 T02481004  RH  019%=      5-min Rain = 0
KPD4 191951Z 18025KT 25/M00 A2977 RMK A01 T02491004  RH  019%=      5-min Rain = 0
KPD4 191952Z 18023KT 25/M00 A2976 RMK A01 T02481004  RH  019%=      5-min Rain = 0
KPD4 191953Z 18020G26KT 25/M00 A2976 RMK A01 T02471004  RH  019%=      5-min Rain = 0
KPD4 191954Z 18023G29KT 25/M00 A2976 RMK A01 T02491002  RH  019%=      5-min Rain = 0
KPD4 191955Z 19026KT 25/M00 A2976 RMK A01 T02501003  RH  019%=      5-min Rain = 0
KPD4 191956Z 19025G30KT 25/M01 A2976 RMK A01 T02491005  RH  019%=      5-min Rain = 0
KPD4 191957Z 20025KT 25/M01 A2976 RMK A01 T02481005  RH  019%=      5-min Rain = 0
KPD4 191958Z 21022G30KT 25/M01 A2976 RMK A01 T02451005  RH  019%=      5-min Rain = 0
KPD4 191959Z 21021G27KT 25/M00 A2976 RMK A01 T02471003  RH  019%=      5-min Rain = 0
KPD4 192000Z 21022G28KT 25/M00 A2976 RMK A01 T02491003  RH  019%=      5-min Rain = 0
KPD4 192001Z 20026KT 25/M00 A2976 RMK A01 T02491003  RH  019%=      5-min Rain = 0
KPD4 192002Z 20024G29KT 25/M00 A2976 RMK A01 T02481004  RH  019%=      5-min Rain = 0
KPD4 192003Z 20023KT 25/M00 A2976 RMK A01 T02471004  RH  019%=      5-min Rain = 0
KPD4 192004Z 19024KT 25/M00 A2976 RMK A01 T02471004  RH  019%=      5-min Rain = 0
KPD4 192005Z 19024G29KT 25/M00 A2976 RMK A01 T02471004  RH  019%=      5-min Rain = 0
KPD4 192006Z 18023KT 25/M00 A2976 RMK A01 T02471003  RH  019%=      5-min Rain = 0
KPD4 192007Z 19022KT 25/M00 A2976 RMK A01 T02471002  RH  019%=      5-min Rain = 0
KPD4 192008Z 19021G26KT 25/M00 A2976 RMK A01 T02481002  RH  019%=      5-min Rain = 0
KPD4 192009Z 19020G25KT 25/M00 A2976 RMK A01 T02481002  RH  019%=      5-min Rain = 0
KPD4 192010Z 19022KT 25/M00 A2976 RMK A01 T02481002  RH  019%=      5-min Rain = 0
KPD4 192011Z 19024KT 25/M00 A2975 RMK A01 T02471003  RH  019%=      5-min Rain = 0
KPD4 192012Z 19020KT 25/M00 A2975 RMK A01 T02461003  RH  019%=      5-min Rain = 0
KPD4 192013Z 19021G27KT 25/M00 A2975 RMK A01 T02471001  RH  020%=      5-min Rain = 0
KPD4 192014Z 19022G27KT 25/M00 A2975 RMK A01 T02501001  RH  019%=      5-min Rain = 0
KPD4 192015Z 20021KT 25/M00 A2975 RMK A01 T02491003  RH  019%=      5-min Rain = 0
KPD4 192016Z 20021KT 25/M00 A2975 RMK A01 T02481002  RH  019%=      5-min Rain = 0
KPD4 192017Z 19023KT 25/M00 A2975 RMK A01 T02481003  RH  019%=      5-min Rain = 0
KPD4 192018Z 20023KT 25/M00 A2975 RMK A01 T02481002  RH  019%=      5-min Rain = 0
KPD4 192019Z 19018G24KT 25/M00 A2975 RMK A01 T02491001  RH  019%=      5-min Rain = 0
KPD4 192020Z 18019KT 25/00 A2975 RMK A01 T02530002  RH  019%=      5-min Rain = 0
KPD4 192021Z 19021G29KT 26/00 A2975 RMK A01 T02560001  RH  019%=      5-min Rain = 0
KPD4 192022Z 19019KT 26/00 A2975 RMK A01 T02560001  RH  019%=      5-min Rain = 0
KPD4 192023Z 20019G26KT 26/00 A2975 RMK A01 T02560001  RH  019%=      5-min Rain = 0
KPD4 192024Z 19021KT 26/00 A2975 RMK A01 T025500-0  RH  019%=      5-min Rain = 0
KPD4 192025Z 19024KT 25/M00 A2975 RMK A01 T02511003  RH  019%=      5-min Rain = 0
KPD4 192026Z 19022KT 25/M00 A2975 RMK A01 T02471004  RH  019%=      5-min Rain = 0
KPD4 192027Z 20020KT 25/M00 A2975 RMK A01 T02451002  RH  020%=      5-min Rain = 0
KPD4 192028Z 19019KT 25/M00 A2975 RMK A01 T02461001  RH  020%=      5-min Rain = 0
KPD4 192029Z 19024KT 25/00 A2975 RMK A01 T024700-0  RH  020%=      5-min Rain = 0
KPD4 192030Z 19022KT 25/M00 A2975 RMK A01 T02471001  RH  019%=      5-min Rain = 0
KPD4 192031Z 19022KT 25/00 A2975 RMK A01 T024700-0  RH  020%=      5-min Rain = 0
KPD4 192032Z 19020KT 25/M00 A2975 RMK A01 T02461001  RH  020%=      5-min Rain = 0
KPD4 192033Z 19021G26KT 25/00 A2975 RMK A01 T024500-0  RH  020%=      5-min Rain = 0
KPD4 192034Z 19026KT 25/M00 A2975 RMK A01 T02461001  RH  020%=      5-min Rain = 0
KPD4 192035Z 19023KT 25/M00 A2975 RMK A01 T02451003  RH  019%=      5-min Rain = 0
KPD4 192036Z 20021G26KT 24/M00 A2975 RMK A01 T02441003  RH  020%=      5-min Rain = 0
KPD4 192037Z 20024KT 24/M00 A2975 RMK A01 T02441003  RH  020%=      5-min Rain = 0
KPD4 192038Z 19023G28KT 25/M00 A2975 RMK A01 T02451003  RH  020%=      5-min Rain = 0
KPD4 192039Z 19023G28KT 25/M00 A2975 RMK A01 T02461003  RH  019%=      5-min Rain = 0
KPD4 192040Z 18024G29KT 25/M00 A2975 RMK A01 T02451003  RH  019%=      5-min Rain = 0
KPD4 192041Z 19024KT 24/M00 A2975 RMK A01 T02441002  RH  020%=      5-min Rain = 0
KPD4 192042Z 19022G27KT 25/M00 A2975 RMK A01 T02461002  RH  020%=      5-min Rain = 0
KPD4 192043Z 20020KT 25/M00 A2975 RMK A01 T02471001  RH  019%=      5-min Rain = 0
KPD4 192044Z 20020G26KT 25/M00 A2975 RMK A01 T02471001  RH  020%=      5-min Rain = 0
KPD4 192045Z 19025KT 25/M00 A2975 RMK A01 T02461001  RH  020%=      5-min Rain = 0
KPD4 192046Z 19021G26KT 24/M00 A2975 RMK A01 T02421003  RH  020%=      5-min Rain = 0
KPD4 192047Z 19020KT 24/M00 A2975 RMK A01 T02401002  RH  020%=      5-min Rain = 0
KPD4 192048Z 19020KT 24/M00 A2975 RMK A01 T02401001  RH  020%=      5-min Rain = 0
KPD4 192049Z 19021G26KT 24/00 A2975 RMK A01 T02420000  RH  020%=      5-min Rain = 0
KPD4 192050Z 20024KT 24/00 A2975 RMK A01 T024400-0  RH  020%=      5-min Rain = 0
KPD4 192051Z 20024KT 25/00 A2974 RMK A01 T024500-0  RH  020%=      5-min Rain = 0
KPD4 192052Z 20023KT 25/00 A2974 RMK A01 T024500-0  RH  020%=      5-min Rain = 0
KPD4 192053Z 20022KT 25/00 A2974 RMK A01 T02470001  RH  020%=      5-min Rain = 0
KPD4 192054Z 20018G23KT 25/00 A2974 RMK A01 T02470001  RH  020%=      5-min Rain = 0
KPD4 192055Z 19021KT 25/00 A2974 RMK A01 T02500002  RH  020%=      5-min Rain = 0
KPD4 192056Z 20020G26KT 25/00 A2974 RMK A01 T02500001  RH  019%=      5-min Rain = 0
KPD4 192057Z 18018KT 25/00 A2975 RMK A01 T02500001  RH  019%=      5-min Rain = 0
KPD4 192058Z 18024G29KT 25/00 A2974 RMK A01 T02500000  RH  019%=      5-min Rain = 0
KPD4 192059Z 19021KT 25/00 A2974 RMK A01 T025000-0  RH  019%=      5-min Rain = 0
KPD4 192100Z 19022KT 25/00 A2974 RMK A01 T025000-0  RH  019%=      5-min Rain = 0
KPD4 192101Z 19022G27KT 25/00 A2974 RMK A01 T025000-0  RH  019%=      5-min Rain = 0
KPD4 192102Z 20020KT 25/00 A2974 RMK A01 T024900-0  RH  019%=      5-min Rain = 0
KPD4 192103Z 18019KT 25/00 A2974 RMK A01 T02490000  RH  019%=      5-min Rain = 0
KPD4 192104Z 18018KT 25/00 A2974 RMK A01 T02490001  RH  020%=      5-min Rain = 0
KPD4 192105Z 18016G25KT 25/00 A2974 RMK A01 T02490002  RH  020%=      5-min Rain = 0
KPD4 192106Z 18020KT 25/00 A2974 RMK A01 T02520002  RH  019%=      5-min Rain = 0
KPD4 192107Z 19020KT 25/00 A2974 RMK A01 T02520000  RH  019%=      5-min Rain = 0
KPD4 192108Z 18020KT 25/00 A2974 RMK A01 T025200-0  RH  019%=      5-min Rain = 0
KPD4 192109Z 19022KT 25/00 A2974 RMK A01 T025100-0  RH  019%=      5-min Rain = 0
KPD4 192110Z 19026G32KT 25/M00 A2974 RMK A01 T02501001  RH  019%=      5-min Rain = 0
KPD4 192111Z 18024KT 25/M00 A2974 RMK A01 T02481002  RH  019%=      5-min Rain = 0
KPD4 192112Z 18025KT 25/M00 A2974 RMK A01 T02481002  RH  019%=      5-min Rain = 0
KPD4 192113Z 18024KT 25/M00 A2974 RMK A01 T02481002  RH  019%=      5-min Rain = 0
KPD4 192114Z 18019G24KT 25/M00 A2974 RMK A01 T02481002  RH  019%=      5-min Rain = 0
KPD4 192115Z 19024KT 25/00 A2973 RMK A01 T025000-0  RH  019%=      5-min Rain = 0
KPD4 192116Z 19024G30KT 25/M00 A2974 RMK A01 T02501001  RH  019%=      5-min Rain = 0
KPD4 192117Z 20022KT 25/M00 A2973 RMK A01 T02491001  RH  019%=      5-min Rain = 0
KPD4 192118Z 19023KT 25/M00 A2973 RMK A01 T02491001  RH  019%=      5-min Rain = 0
KPD4 192119Z 18019KT 25/M00 A2973 RMK A01 T02491001  RH  019%=      5-min Rain = 0
KPD4 192120Z 18020G26KT 25/M00 A2973 RMK A01 T02491001  RH  019%=      5-min Rain = 0
KPD4 192121Z 18022KT 25/M00 A2973 RMK A01 T02491002  RH  019%=      5-min Rain = 0
KPD4 192122Z 18022KT 25/M00 A2973 RMK A01 T02491002  RH  019%=      5-min Rain = 0
KPD4 192123Z 18019KT 25/M00 A2973 RMK A01 T02481002  RH  019%=      5-min Rain = 0
KPD4 192124Z 18019KT 25/M00 A2973 RMK A01 T02481001  RH  019%=      5-min Rain = 0
KPD4 192125Z 18020KT 25/M00 A2973 RMK A01 T02491001  RH  019%=      5-min Rain = 0
KPD4 192126Z 19020G26KT 25/M00 A2973 RMK A01 T02501001  RH  019%=      5-min Rain = 0
KPD4 192127Z 19021KT 25/M00 A2973 RMK A01 T02501001  RH  019%=      5-min Rain = 0
KPD4 192128Z 19021KT 25/M00 A2973 RMK A01 T02491001  RH  019%=      5-min Rain = 0
KPD4 192129Z 19017KT 25/M00 A2974 RMK A01 T02491001  RH  019%=      5-min Rain = 0
KPD4 192130Z 20016KT 25/00 A2973 RMK A01 T02490000  RH  019%=      5-min Rain = 0
KPD4 192131Z 19015KT 25/00 A2973 RMK A01 T02510001  RH  019%=      5-min Rain = 0
KPD4 192132Z 18017G22KT 25/00 A2974 RMK A01 T02510001  RH  019%=      5-min Rain = 0
KPD4 192133Z 19018KT 25/00 A2973 RMK A01 T02510001  RH  019%=      5-min Rain = 0
KPD4 192134Z 19016KT 25/00 A2974 RMK A01 T02510001  RH  019%=      5-min Rain = 0
KPD4 192135Z 19019G24KT 25/00 A2973 RMK A01 T02510002  RH  019%=      5-min Rain = 0
KPD4 192136Z 19015KT 25/00 A2973 RMK A01 T02510002  RH  019%=      5-min Rain = 0
KPD4 192137Z 19020KT 25/00 A2973 RMK A01 T02510001  RH  019%=      5-min Rain = 0
KPD4 192138Z 19020KT 25/00 A2973 RMK A01 T02500000  RH  019%=      5-min Rain = 0
KPD4 192139Z 19016G21KT 25/00 A2973 RMK A01 T02490001  RH  020%=      5-min Rain = 0
KPD4 192140Z 18016KT 25/00 A2974 RMK A01 T02490002  RH  020%=      5-min Rain = 0
KPD4 192141Z 18016KT 25/00 A2973 RMK A01 T02500002  RH  020%=      5-min Rain = 0
KPD4 192142Z 19018KT 25/00 A2973 RMK A01 T02500003  RH  020%=      5-min Rain = 0
KPD4 192143Z 19016KT 25/00 A2973 RMK A01 T02490002  RH  020%=      5-min Rain = 0
KPD4 192144Z 19015G20KT 25/00 A2974 RMK A01 T02490002  RH  020%=      5-min Rain = 0
KPD4 192145Z 19017KT 25/00 A2973 RMK A01 T02500002  RH  020%=      5-min Rain = 0
KPD4 192146Z 18017KT 25/00 A2973 RMK A01 T02500002  RH  020%=      5-min Rain = 0
KPD4 192147Z 18018KT 25/00 A2974 RMK A01 T02490002  RH  020%=      5-min Rain = 0
KPD4 192148Z 17016KT 25/00 A2974 RMK A01 T02470002  RH  020%=      5-min Rain = 0
KPD4 192149Z 17018KT 25/00 A2974 RMK A01 T02460004  RH  020%=      5-min Rain = 0
KPD4 192150Z 18019KT 25/00 A2974 RMK A01 T02450004  RH  020%=      5-min Rain = 0
KPD4 192151Z 17017KT 24/00 A2974 RMK A01 T02440004  RH  021%=      5-min Rain = 0
KPD4 192152Z 17016KT 24/00 A2974 RMK A01 T02430004  RH  021%=      5-min Rain = 0
KPD4 192153Z 17014KT 24/00 A2973 RMK A01 T02420004  RH  021%=      5-min Rain = 0
KPD4 192154Z 17018KT 24/01 A2973 RMK A01 T02430005  RH  021%=      5-min Rain = 0
KPD4 192155Z 16016KT 24/01 A2973 RMK A01 T02420005  RH  021%=      5-min Rain = 0
KPD4 192156Z 17020KT 24/00 A2973 RMK A01 T02400004  RH  021%=      5-min Rain = 0
KPD4 192157Z 17017KT 24/00 A2973 RMK A01 T02380004  RH  021%=      5-min Rain = 0
KPD4 192158Z 17015KT 24/01 A2973 RMK A01 T02380005  RH  021%=      5-min Rain = 0
KPD4 192159Z 16013KT 24/01 A2974 RMK A01 T02380006  RH  022%=      5-min Rain = 0
KPD4 192200Z 16013KT 24/01 A2973 RMK A01 T02380007  RH  022%=      5-min Rain = 0
KPD4 192201Z 16013KT 24/01 A2973 RMK A01 T02380006  RH  022%=      5-min Rain = 0
KPD4 192202Z 17014G19KT 24/01 A2973 RMK A01 T02380006  RH  022%=      5-min Rain = 0
KPD4 192203Z 17014KT 24/01 A2973 RMK A01 T02370006  RH  022%=      5-min Rain = 0
KPD4 192204Z 17015KT 24/01 A2973 RMK A01 T02370006  RH  022%=      5-min Rain = 0
KPD4 192205Z 16015KT 24/01 A2973 RMK A01 T02360006  RH  022%=      5-min Rain = 0
KPD4 192206Z 17011KT 24/01 A2973 RMK A01 T02360007  RH  022%=      5-min Rain = 0
KPD4 192207Z 16012G17KT 24/01 A2973 RMK A01 T02360007  RH  022%=      5-min Rain = 0
KPD4 192208Z 16017KT 24/01 A2973 RMK A01 T02360008  RH  022%=      5-min Rain = 0
KPD4 192209Z 16017KT 24/01 A2973 RMK A01 T02350006  RH  022%=      5-min Rain = 0
KPD4 192210Z 16017KT 23/01 A2973 RMK A01 T02330006  RH  022%=      5-min Rain = 0
KPD4 192211Z 16017KT 23/01 A2973 RMK A01 T02330007  RH  022%=      5-min Rain = 0
KPD4 192212Z 16013KT 23/01 A2973 RMK A01 T02320007  RH  023%=      5-min Rain = 0
KPD4 192213Z 16016KT 23/01 A2973 RMK A01 T02320008  RH  023%=      5-min Rain = 0
KPD4 192214Z 16013KT 23/01 A2973 RMK A01 T02320009  RH  023%=      5-min Rain = 0
KPD4 192215Z 16014KT 23/01 A2973 RMK A01 T02320009  RH  023%=      5-min Rain = 0
KPD4 192216Z 16016KT 23/01 A2973 RMK A01 T02320009  RH  023%=      5-min Rain = 0
KPD4 192217Z 16016KT 23/01 A2973 RMK A01 T02320009  RH  023%=      5-min Rain = 0
KPD4 192218Z 17016KT 23/01 A2973 RMK A01 T02320009  RH  023%=      5-min Rain = 0
KPD4 192219Z 16015G20KT 23/01 A2973 RMK A01 T02330009  RH  023%=      5-min Rain = 0
KPD4 192220Z 17015KT 23/01 A2973 RMK A01 T02330010  RH  023%=      5-min Rain = 0
KPD4 192221Z 16013KT 23/01 A2973 RMK A01 T02340010  RH  023%=      5-min Rain = 0
KPD4 192222Z 16015KT 23/01 A2973 RMK A01 T02340010  RH  023%=      5-min Rain = 0
KPD4 192223Z 16014KT 23/01 A2973 RMK A01 T02340009  RH  023%=      5-min Rain = 0
KPD4 192224Z 17013KT 23/01 A2973 RMK A01 T02340010  RH  023%=      5-min Rain = 0
KPD4 192225Z 16011KT 23/01 A2973 RMK A01 T02340010  RH  023%=      5-min Rain = 0
KPD4 192226Z 16014KT 23/01 A2973 RMK A01 T02340010  RH  023%=      5-min Rain = 0
KPD4 192227Z 16016KT 23/01 A2973 RMK A01 T02340010  RH  023%=      5-min Rain = 0
KPD4 192228Z 16017KT 23/01 A2973 RMK A01 T02330010  RH  023%=      5-min Rain = 0
KPD4 192229Z 16014KT 23/01 A2973 RMK A01 T02320010  RH  023%=      5-min Rain = 0
KPD4 192230Z 17016KT 23/01 A2973 RMK A01 T02320009  RH  023%=      5-min Rain = 0
KPD4 192231Z 18015KT 23/01 A2973 RMK A01 T02320009  RH  023%=      5-min Rain = 0
KPD4 192232Z 17016KT 23/01 A2973 RMK A01 T02320010  RH  023%=      5-min Rain = 0
KPD4 192233Z 17017KT 23/01 A2973 RMK A01 T02320009  RH  023%=      5-min Rain = 0
KPD4 192234Z 17017KT 23/01 A2973 RMK A01 T02320010  RH  023%=      5-min Rain = 0
KPD4 192235Z 17015KT 23/01 A2973 RMK A01 T02310009  RH  023%=      5-min Rain = 0
KPD4 192236Z 17016KT 23/01 A2973 RMK A01 T02310010  RH  023%=      5-min Rain = 0
KPD4 192237Z 17018KT 23/01 A2973 RMK A01 T02300009  RH  023%=      5-min Rain = 0
KPD4 192238Z 16018KT 23/01 A2973 RMK A01 T02300009  RH  023%=      5-min Rain = 0
KPD4 192239Z 16017KT 23/01 A2973 RMK A01 T02290009  RH  023%=      5-min Rain = 0
KPD4 192240Z 16013KT 23/01 A2973 RMK A01 T02280009  RH  023%=      5-min Rain = 0
KPD4 192241Z 16016KT 23/01 A2973 RMK A01 T02270009  RH  024%=      5-min Rain = 0
KPD4 192242Z 17015KT 23/01 A2973 RMK A01 T02270009  RH  024%=      5-min Rain = 0
KPD4 192243Z 17019KT 23/01 A2973 RMK A01 T02270008  RH  024%=      5-min Rain = 0
KPD4 192244Z 17018KT 23/01 A2973 RMK A01 T02260008  RH  024%=      5-min Rain = 0
KPD4 192245Z 17016KT 23/01 A2973 RMK A01 T02260008  RH  024%=      5-min Rain = 0
KPD4 192246Z 17012KT 23/01 A2973 RMK A01 T02260008  RH  024%=      5-min Rain = 0
KPD4 192247Z 17017KT 23/01 A2973 RMK A01 T02250008  RH  024%=      5-min Rain = 0
KPD4 192248Z 16015G20KT 23/01 A2973 RMK A01 T02250009  RH  024%=      5-min Rain = 0
KPD4 192249Z 16011KT 22/01 A2973 RMK A01 T02240009  RH  024%=      5-min Rain = 0
KPD4 192250Z 17015KT 22/01 A2973 RMK A01 T02230010  RH  024%=      5-min Rain = 0
KPD4 192251Z 16013KT 22/01 A2973 RMK A01 T02220010  RH  024%=      5-min Rain = 0
KPD4 192252Z 17015KT 22/01 A2972 RMK A01 T02220010  RH  025%=      5-min Rain = 0
KPD4 192253Z 17014KT 22/01 A2972 RMK A01 T02210009  RH  025%=      5-min Rain = 0
KPD4 192254Z 16014G19KT 22/01 A2972 RMK A01 T02210009  RH  025%=      5-min Rain = 0
KPD4 192255Z 17015KT 22/01 A2972 RMK A01 T02200009  RH  025%=      5-min Rain = 0
KPD4 192256Z 17015KT 22/01 A2973 RMK A01 T02200009  RH  025%=      5-min Rain = 0
KPD4 192257Z 17013KT 22/01 A2973 RMK A01 T02200010  RH  025%=      5-min Rain = 0
KPD4 192258Z 17013G18KT 22/01 A2973 RMK A01 T02190009  RH  025%=      5-min Rain = 0
KPD4 192259Z 17015KT 22/01 A2973 RMK A01 T02180010  RH  025%=      5-min Rain = 0
KPD4 192300Z 17013KT 22/01 A2973 RMK A01 T02170010  RH  025%=      5-min Rain = 0
KPD4 192301Z 16014KT 22/01 A2972 RMK A01 T02160010  RH  025%=      5-min Rain = 0
KPD4 192302Z 16013KT 22/01 A2972 RMK A01 T02160010  RH  025%=      5-min Rain = 0
KPD4 192303Z 17013KT 22/01 A2972 RMK A01 T02150010  RH  026%=      5-min Rain = 0
KPD4 192304Z 16015KT 21/01 A2972 RMK A01 T02140010  RH  026%=      5-min Rain = 0
KPD4 192305Z 16015KT 21/01 A2972 RMK A01 T02140011  RH  026%=      5-min Rain = 0
KPD4 192306Z 16015KT 21/01 A2972 RMK A01 T02140011  RH  026%=      5-min Rain = 0
KPD4 192307Z 16015KT 21/01 A2972 RMK A01 T02130011  RH  026%=      5-min Rain = 0
KPD4 192308Z 16015KT 21/01 A2972 RMK A01 T02130011  RH  026%=      5-min Rain = 0
KPD4 192309Z 16016KT 21/01 A2972 RMK A01 T02120011  RH  026%=      5-min Rain = 0
KPD4 192310Z 16014G20KT 21/01 A2972 RMK A01 T02110011  RH  026%=      5-min Rain = 0
KPD4 192311Z 17015KT 21/01 A2972 RMK A01 T02110011  RH  027%=      5-min Rain = 0
KPD4 192312Z 16013KT 21/01 A2972 RMK A01 T02100011  RH  027%=      5-min Rain = 0
KPD4 192313Z 16013KT 21/01 A2972 RMK A01 T02090011  RH  027%=      5-min Rain = 0
KPD4 192314Z 17013KT 21/01 A2972 RMK A01 T02080011  RH  027%=      5-min Rain = 0
KPD4 192315Z 17014KT 21/01 A2972 RMK A01 T02070011  RH  027%=      5-min Rain = 0
KPD4 192316Z 16013KT 21/01 A2972 RMK A01 T02070011  RH  027%=      5-min Rain = 0
KPD4 192317Z 16011KT 21/01 A2972 RMK A01 T02060011  RH  027%=      5-min Rain = 0
KPD4 192318Z 16012KT 21/01 A2972 RMK A01 T02050010  RH  027%=      5-min Rain = 0
KPD4 192319Z 16014KT 20/01 A2972 RMK A01 T02040011  RH  028%=      5-min Rain = 0
KPD4 192320Z 16012KT 20/01 A2972 RMK A01 T02040011  RH  028%=      5-min Rain = 0
KPD4 192321Z 16013KT 20/01 A2972 RMK A01 T02030011  RH  028%=      5-min Rain = 0
KPD4 192322Z 16012KT 20/01 A2972 RMK A01 T02030012  RH  028%=      5-min Rain = 0
KPD4 192323Z 16013KT 20/01 A2972 RMK A01 T02020012  RH  028%=      5-min Rain = 0
KPD4 192324Z 16013KT 20/01 A2972 RMK A01 T02020012  RH  028%=      5-min Rain = 0
KPD4 192325Z 16012KT 20/01 A2972 RMK A01 T02010011  RH  028%=      5-min Rain = 0
KPD4 192326Z 16012KT 20/01 A2972 RMK A01 T02000011  RH  028%=      5-min Rain = 0
KPD4 192327Z 16012KT 20/01 A2972 RMK A01 T01990011  RH  029%=      5-min Rain = 0
KPD4 192328Z 17011KT 20/01 A2972 RMK A01 T01980011  RH  029%=      5-min Rain = 0
KPD4 192329Z 16011KT 20/01 A2972 RMK A01 T01980011  RH  029%=      5-min Rain = 0
KPD4 192330Z 16011KT 20/01 A2972 RMK A01 T01970010  RH  029%=      5-min Rain = 0
KPD4 192331Z 16011KT 20/01 A2972 RMK A01 T01960010  RH  029%=      5-min Rain = 0
KPD4 192332Z 17010KT 20/01 A2972 RMK A01 T01950010  RH  029%=      5-min Rain = 0
KPD4 192333Z 16013KT 19/01 A2972 RMK A01 T01940010  RH  029%=      5-min Rain = 0
KPD4 192334Z 16010KT 19/01 A2972 RMK A01 T01940010  RH  029%=      5-min Rain = 0
KPD4 192335Z 16012KT 19/01 A2972 RMK A01 T01930010  RH  029%=      5-min Rain = 0
KPD4 192336Z 16011KT 19/01 A2972 RMK A01 T01930010  RH  029%=      5-min Rain = 0
KPD4 192337Z 16012KT 19/01 A2972 RMK A01 T01920009  RH  029%=      5-min Rain = 0
KPD4 192338Z 16011KT 19/01 A2972 RMK A01 T01920010  RH  030%=      5-min Rain = 0
KPD4 192339Z 15011KT 19/01 A2972 RMK A01 T01910009  RH  030%=      5-min Rain = 0
KPD4 192340Z 15011KT 19/01 A2972 RMK A01 T01900009  RH  030%=      5-min Rain = 0
KPD4 192341Z 15010KT 19/01 A2972 RMK A01 T01890009  RH  030%=      5-min Rain = 0
KPD4 192342Z 15010KT 19/01 A2972 RMK A01 T01890009  RH  030%=      5-min Rain = 0
KPD4 192343Z 15009KT 19/01 A2972 RMK A01 T01880008  RH  030%=      5-min Rain = 0
KPD4 192344Z 15010KT 19/01 A2972 RMK A01 T01870008  RH  030%=      5-min Rain = 0
KPD4 192345Z 15009KT 19/01 A2972 RMK A01 T01860008  RH  030%=      5-min Rain = 0
KPD4 192346Z 15009KT 19/01 A2972 RMK A01 T01850008  RH  030%=      5-min Rain = 0
KPD4 192347Z 15009KT 18/01 A2972 RMK A01 T01840008  RH  031%=      5-min Rain = 0
KPD4 192348Z 15009KT 18/01 A2972 RMK A01 T01830009  RH  031%=      5-min Rain = 0
KPD4 192349Z 15009KT 18/01 A2972 RMK A01 T01830009  RH  031%=      5-min Rain = 0
KPD4 192350Z 15010KT 18/01 A2972 RMK A01 T01820009  RH  031%=      5-min Rain = 0
KPD4 192351Z 15011KT 18/01 A2972 RMK A01 T01810010  RH  032%=      5-min Rain = 0
KPD4 192352Z 16009KT 18/01 A2972 RMK A01 T01810010  RH  032%=      5-min Rain = 0
KPD4 192353Z 16009KT 18/01 A2972 RMK A01 T01800010  RH  032%=      5-min Rain = 0
KPD4 192354Z 15008KT 18/01 A2972 RMK A01 T01790009  RH  032%=      5-min Rain = 0
KPD4 192355Z 15009KT 18/01 A2972 RMK A01 T01780010  RH  032%=      5-min Rain = 0
KPD4 192356Z 16008KT 18/01 A2972 RMK A01 T01780009  RH  032%=      5-min Rain = 0
KPD4 192357Z 16008KT 18/01 A2972 RMK A01 T01770009  RH  032%=      5-min Rain = 0
KPD4 192358Z 16008KT 18/01 A2972 RMK A01 T01760009  RH  032%=      5-min Rain = 0
KPD4 192359Z 16008KT 18/01 A2972 RMK A01 T01750009  RH  033%=      5-min Rain = 0
KPD4 200000Z 16007KT 17/01 A2973 RMK A01 T01740009  RH  033%=      5-min Rain = 0
KPD4 200001Z 17007KT 17/01 A2973 RMK A01 T01730008  RH  033%=      5-min Rain = 0
KPD4 200002Z 16007KT 17/01 A2973 RMK A01 T01720008  RH  033%=      5-min Rain = 0
KPD4 200003Z 17007KT 17/01 A2973 RMK A01 T01710008  RH  033%=      5-min Rain = 0
KPD4 200004Z 16007KT 17/01 A2973 RMK A01 T01690007  RH  034%=      5-min Rain = 0
KPD4 200005Z 16007KT 17/01 A2973 RMK A01 T01680008  RH  034%=      5-min Rain = 0
KPD4 200006Z 18006KT 17/01 A2973 RMK A01 T01670008  RH  034%=      5-min Rain = 0
KPD4 200007Z 19005KT 17/01 A2973 RMK A01 T01650007  RH  034%=      5-min Rain = 0
KPD4 200008Z 19004KT 16/01 A2973 RMK A01 T01640006  RH  034%=      5-min Rain = 0
KPD4 200009Z 18003KT 16/01 A2973 RMK A01 T01630005  RH  034%=      5-min Rain = 0
KPD4 200010Z 17004KT 16/01 A2973 RMK A01 T01630005  RH  034%=      5-min Rain = 0
KPD4 200011Z 17005KT 16/01 A2973 RMK A01 T01620005  RH  035%=      5-min Rain = 0
KPD4 200012Z 16007KT 16/01 A2973 RMK A01 T01620006  RH  035%=      5-min Rain = 0
KPD4 200013Z 16007KT 16/01 A2973 RMK A01 T01620006  RH  035%=      5-min Rain = 0
KPD4 200014Z 16009KT 16/01 A2973 RMK A01 T01620007  RH  035%=      5-min Rain = 0
KPD4 200015Z 16008KT 16/01 A2973 RMK A01 T01620007  RH  035%=      5-min Rain = 0
KPD4 200016Z 16009KT 16/01 A2973 RMK A01 T01630007  RH  035%=      5-min Rain = 0
KPD4 200017Z 16009KT 16/01 A2973 RMK A01 T01630007  RH  035%=      5-min Rain = 0
KPD4 200018Z 17008KT 16/01 A2973 RMK A01 T01630007  RH  035%=      5-min Rain = 0
KPD4 200019Z 18007KT 16/01 A2973 RMK A01 T01630007  RH  035%=      5-min Rain = 0
KPD4 200020Z 18005KT 16/01 A2973 RMK A01 T01620006  RH  035%=      5-min Rain = 0
KPD4 200021Z 17006KT 16/01 A2973 RMK A01 T01600005  RH  035%=      5-min Rain = 0
KPD4 200022Z 18004KT 16/01 A2973 RMK A01 T01600005  RH  035%=      5-min Rain = 0
KPD4 200023Z 18004KT 16/01 A2973 RMK A01 T01600005  RH  035%=      5-min Rain = 0
KPD4 200024Z 17004KT 16/01 A2973 RMK A01 T01590005  RH  035%=      5-min Rain = 0
KPD4 200025Z 19003KT 16/01 A2973 RMK A01 T01580005  RH  035%=      5-min Rain = 0
KPD4 200026Z 19003KT 16/00 A2973 RMK A01 T01580004  RH  035%=      5-min Rain = 0
KPD4 200027Z 20004KT 16/00 A2973 RMK A01 T01570004  RH  035%=      5-min Rain = 0
KPD4 200028Z 22005KT 16/00 A2973 RMK A01 T01560004  RH  035%=      5-min Rain = 0
KPD4 200029Z 21006KT 16/00 A2973 RMK A01 T01550003  RH  036%=      5-min Rain = 0
KPD4 200030Z 20006KT 15/00 A2974 RMK A01 T01520002  RH  036%=      5-min Rain = 0
KPD4 200031Z 20005KT 15/00 A2974 RMK A01 T01510003  RH  036%=      5-min Rain = 0
KPD4 200032Z 20005KT 15/00 A2974 RMK A01 T01500002  RH  036%=      5-min Rain = 0
KPD4 200033Z 20005KT 15/00 A2974 RMK A01 T01500003  RH  037%=      5-min Rain = 0
KPD4 200034Z 20005KT 15/00 A2974 RMK A01 T01490003  RH  037%=      5-min Rain = 0
KPD4 200035Z 20006KT 15/00 A2974 RMK A01 T01490003  RH  037%=      5-min Rain = 0
KPD4 200036Z 21005KT 15/00 A2974 RMK A01 T01490002  RH  037%=      5-min Rain = 0
KPD4 200037Z 20006KT 15/00 A2974 RMK A01 T01480003  RH  037%=      5-min Rain = 0
KPD4 200038Z 20006KT 15/00 A2974 RMK A01 T01490003  RH  037%=      5-min Rain = 0
KPD4 200039Z 20005KT 15/00 A2974 RMK A01 T01490002  RH  037%=      5-min Rain = 0
KPD4 200040Z 20006KT 15/00 A2974 RMK A01 T01500003  RH  037%=      5-min Rain = 0
KPD4 200041Z 20006KT 15/00 A2974 RMK A01 T01510003  RH  036%=      5-min Rain = 0
KPD4 200042Z 20006KT 15/00 A2974 RMK A01 T01510002  RH  036%=      5-min Rain = 0
KPD4 200043Z 20005KT 15/00 A2974 RMK A01 T01500002  RH  036%=      5-min Rain = 0
KPD4 200044Z 20005KT 15/00 A2974 RMK A01 T01490002  RH  036%=      5-min Rain = 0
KPD4 200045Z 20007KT 15/00 A2974 RMK A01 T01480002  RH  037%=      5-min Rain = 0
KPD4 200046Z 19006KT 15/00 A2974 RMK A01 T01510003  RH  036%=      5-min Rain = 0
KPD4 200047Z 18008KT 15/00 A2974 RMK A01 T01520003  RH  036%=      5-min Rain = 0
KPD4 200048Z 18009KT 15/00 A2974 RMK A01 T01540003  RH  036%=      5-min Rain = 0
KPD4 200049Z 18010KT 16/00 A2974 RMK A01 T01570004  RH  035%=      5-min Rain = 0
KPD4 200050Z 17010KT 16/00 A2974 RMK A01 T01590004  RH  035%=      5-min Rain = 0
KPD4 200051Z 17009KT 16/00 A2974 RMK A01 T01610003  RH  034%=      5-min Rain = 0
KPD4 200052Z 17009KT 16/00 A2974 RMK A01 T01610003  RH  034%=      5-min Rain = 0
KPD4 200053Z 17009KT 16/00 A2974 RMK A01 T01590002  RH  034%=      5-min Rain = 0
KPD4 200054Z 18010KT 16/00 A2974 RMK A01 T01580002  RH  035%=      5-min Rain = 0
KPD4 200055Z 18009KT 16/00 A2974 RMK A01 T01580002  RH  035%=      5-min Rain = 0
KPD4 200056Z 18008KT 16/00 A2974 RMK A01 T01570002  RH  035%=      5-min Rain = 0
KPD4 200057Z 18010KT 16/00 A2974 RMK A01 T01550001  RH  035%=      5-min Rain = 0
KPD4 200058Z 18009KT 15/00 A2974 RMK A01 T01540002  RH  035%=      5-min Rain = 0
KPD4 200059Z 18009KT 15/00 A2974 RMK A01 T01530001  RH  035%=      5-min Rain = 0
KPD4 200100Z 18009KT 15/00 A2974 RMK A01 T01510001  RH  036%=      5-min Rain = 0
KPD4 200101Z 19009KT 15/00 A2974 RMK A01 T01500001  RH  036%=      5-min Rain = 0
KPD4 200102Z 18009KT 15/00 A2974 RMK A01 T01490000  RH  036%=      5-min Rain = 0
KPD4 200103Z 19009KT 15/00 A2974 RMK A01 T01480000  RH  036%=      5-min Rain = 0
KPD4 200104Z 19009KT 15/00 A2974 RMK A01 T01480001  RH  037%=      5-min Rain = 0
KPD4 200105Z 19008KT 15/00 A2974 RMK A01 T01470000  RH  037%=      5-min Rain = 0
KPD4 200106Z 19008KT 15/00 A2974 RMK A01 T01470000  RH  037%=      5-min Rain = 0
KPD4 200107Z 20007KT 15/00 A2974 RMK A01 T014700-0  RH  037%=      5-min Rain = 0
KPD4 200108Z 20007KT 15/00 A2974 RMK A01 T01470000  RH  037%=      5-min Rain = 0
KPD4 200109Z 19006KT 15/M00 A2974 RMK A01 T01451001  RH  037%=      5-min Rain = 0
KPD4 200110Z 20007KT 14/M00 A2974 RMK A01 T01441001  RH  037%=      5-min Rain = 0
KPD4 200111Z 20006KT 14/M00 A2974 RMK A01 T01421001  RH  037%=      5-min Rain = 0
KPD4 200112Z 20008KT 14/M00 A2974 RMK A01 T01411001  RH  038%=      5-min Rain = 0
KPD4 200113Z 20007KT 14/00 A2974 RMK A01 T014200-0  RH  038%=      5-min Rain = 0
KPD4 200114Z 20007KT 14/M00 A2974 RMK A01 T01431001  RH  037%=      5-min Rain = 0
KPD4 200115Z 20008KT 14/M00 A2974 RMK A01 T01421001  RH  038%=      5-min Rain = 0
KPD4 200116Z 19007KT 14/M00 A2974 RMK A01 T01421001  RH  038%=      5-min Rain = 0
KPD4 200117Z 19007KT 14/M00 A2975 RMK A01 T01421001  RH  038%=      5-min Rain = 0
KPD4 200118Z 19008KT 14/M00 A2975 RMK A01 T01421001  RH  038%=      5-min Rain = 0
KPD4 200119Z 20007KT 14/00 A2975 RMK A01 T014300-0  RH  037%=      5-min Rain = 0
KPD4 200120Z 19008KT 14/M00 A2975 RMK A01 T01431001  RH  037%=      5-min Rain = 0
KPD4 200121Z 19008KT 14/M00 A2975 RMK A01 T01431001  RH  037%=      5-min Rain = 0
KPD4 200122Z 19007KT 14/M00 A2975 RMK A01 T01441001  RH  037%=      5-min Rain = 0
KPD4 200123Z 19007KT 14/M00 A2975 RMK A01 T01441001  RH  037%=      5-min Rain = 0
KPD4 200124Z 19007KT 14/M00 A2974 RMK A01 T01441001  RH  037%=      5-min Rain = 0
KPD4 200125Z 19007KT 14/M00 A2974 RMK A01 T01441001  RH  037%=      5-min Rain = 0
KPD4 200126Z 19007KT 14/M00 A2975 RMK A01 T01431002  RH  037%=      5-min Rain = 0
KPD4 200127Z 19007KT 14/M00 A2975 RMK A01 T01421002  RH  037%=      5-min Rain = 0
KPD4 200128Z 19006KT 14/M00 A2975 RMK A01 T01411002  RH  037%=      5-min Rain = 0
KPD4 200129Z 18006KT 14/M00 A2975 RMK A01 T01411002  RH  037%=      5-min Rain = 0
KPD4 200130Z 19007KT 14/M00 A2975 RMK A01 T01411002  RH  037%=      5-min Rain = 0
KPD4 200131Z 19006KT 14/M00 A2975 RMK A01 T01411003  RH  037%=      5-min Rain = 0
KPD4 200132Z 19008KT 14/M00 A2975 RMK A01 T01411002  RH  037%=      5-min Rain = 0
KPD4 200133Z 18009KT 14/M00 A2975 RMK A01 T01421002  RH  037%=      5-min Rain = 0
KPD4 200134Z 19008KT 15/M00 A2975 RMK A01 T01451001  RH  037%=      5-min Rain = 0
KPD4 200135Z 19008KT 15/M00 A2975 RMK A01 T01451002  RH  036%=      5-min Rain = 0
KPD4 200136Z 18008KT 14/M00 A2974 RMK A01 T01431003  RH  037%=      5-min Rain = 0
KPD4 200137Z 19009KT 14/M00 A2975 RMK A01 T01421003  RH  037%=      5-min Rain = 0
KPD4 200138Z 18008KT 14/M00 A2975 RMK A01 T01431002  RH  037%=      5-min Rain = 0
KPD4 200139Z 18009KT 14/M00 A2975 RMK A01 T01431002  RH  037%=      5-min Rain = 0
KPD4 200140Z 19010KT 14/M00 A2975 RMK A01 T01421003  RH  037%=      5-min Rain = 0
KPD4 200141Z 18009KT 14/M00 A2975 RMK A01 T01411003  RH  037%=      5-min Rain = 0
KPD4 200142Z 19008KT 14/M00 A2975 RMK A01 T01411003  RH  037%=      5-min Rain = 0
KPD4 200143Z 19009KT 14/M00 A2975 RMK A01 T01411003  RH  037%=      5-min Rain = 0
KPD4 200144Z 19009KT 14/M00 A2975 RMK A01 T01411003  RH  037%=      5-min Rain = 0
KPD4 200145Z 19009KT 14/M00 A2975 RMK A01 T01411003  RH  037%=      5-min Rain = 0
KPD4 200146Z 19009KT 14/M00 A2974 RMK A01 T01411003  RH  037%=      5-min Rain = 0
KPD4 200147Z 18009KT 14/M00 A2974 RMK A01 T01431003  RH  037%=      5-min Rain = 0
KPD4 200148Z 18009KT 14/M00 A2974 RMK A01 T01431003  RH  037%=      5-min Rain = 0
KPD4 200149Z 18008KT 14/M00 A2974 RMK A01 T01431003  RH  037%=      5-min Rain = 0
KPD4 200150Z 18008KT 14/M00 A2974 RMK A01 T01421003  RH  037%=      5-min Rain = 0
KPD4 200151Z 18008KT 14/M00 A2974 RMK A01 T01401004  RH  037%=      5-min Rain = 0
KPD4 200152Z 18009KT 14/M00 A2974 RMK A01 T01391004  RH  037%=      5-min Rain = 0
KPD4 200153Z 18008KT 14/M00 A2974 RMK A01 T01381004  RH  038%=      5-min Rain = 0
KPD4 200154Z 18008KT 14/M00 A2974 RMK A01 T01371004  RH  038%=      5-min Rain = 0
KPD4 200155Z 18009KT 14/M00 A2974 RMK A01 T01361004  RH  038%=      5-min Rain = 0
KPD4 200156Z 18008KT 14/M00 A2974 RMK A01 T01361004  RH  038%=      5-min Rain = 0
KPD4 200157Z 18008KT 14/M00 A2975 RMK A01 T01361004  RH  038%=      5-min Rain = 0
KPD4 200158Z 18009KT 14/M00 A2975 RMK A01 T01351004  RH  038%=      5-min Rain = 0
KPD4 200159Z 18009KT 13/M01 A2975 RMK A01 T01331005  RH  039%=      5-min Rain = 0
KPD4 200200Z 18009KT 13/M00 A2975 RMK A01 T01331004  RH  039%=      5-min Rain = 0
KPD4 200201Z 18009KT 13/M00 A2975 RMK A01 T01331004  RH  039%=      5-min Rain = 0
KPD4 200202Z 18009KT 13/M00 A2975 RMK A01 T01331004  RH  039%=      5-min Rain = 0
KPD4 200203Z 18009KT 13/M00 A2975 RMK A01 T01331004  RH  039%=      5-min Rain = 0
KPD4 200204Z 18010KT 13/M00 A2975 RMK A01 T01331004  RH  039%=      5-min Rain = 0
KPD4 200205Z 18010KT 13/M00 A2975 RMK A01 T01331004  RH  039%=      5-min Rain = 0
KPD4 200206Z 18009KT 13/M00 A2975 RMK A01 T01341004  RH  039%=      5-min Rain = 0
KPD4 200207Z 18009KT 13/M00 A2975 RMK A01 T01341004  RH  038%=      5-min Rain = 0
KPD4 200208Z 18010KT 13/M00 A2975 RMK A01 T01341004  RH  038%=      5-min Rain = 0
KPD4 200209Z 18010KT 14/M00 A2975 RMK A01 T01351004  RH  038%=      5-min Rain = 0
KPD4 200210Z 18011KT 14/M00 A2975 RMK A01 T01361004  RH  038%=      5-min Rain = 0
KPD4 200211Z 18009KT 14/M00 A2975 RMK A01 T01381004  RH  038%=      5-min Rain = 0
KPD4 200212Z 17010KT 14/M00 A2975 RMK A01 T01381004  RH  038%=      5-min Rain = 0
KPD4 200213Z 17009KT 14/M01 A2974 RMK A01 T01371005  RH  038%=      5-min Rain = 0
KPD4 200214Z 17010KT 14/M01 A2974 RMK A01 T01371005  RH  038%=      5-min Rain = 0
KPD4 200215Z 17010KT 14/M00 A2974 RMK A01 T01381004  RH  038%=      5-min Rain = 0
KPD4 200216Z 17010KT 14/M01 A2974 RMK A01 T01371005  RH  038%=      5-min Rain = 0
KPD4 200217Z 17010KT 14/M01 A2974 RMK A01 T01371005  RH  038%=      5-min Rain = 0
KPD4 200218Z 17010KT 14/M01 A2974 RMK A01 T01371005  RH  038%=      5-min Rain = 0
KPD4 200219Z 17010KT 14/M01 A2974 RMK A01 T01371005  RH  038%=      5-min Rain = 0
KPD4 200220Z 17011KT 14/M01 A2974 RMK A01 T01361005  RH  038%=      5-min Rain = 0
KPD4 200221Z 17012KT 14/M00 A2974 RMK A01 T01371004  RH  038%=      5-min Rain = 0
KPD4 200222Z 17011KT 14/M00 A2974 RMK A01 T01371004  RH  038%=      5-min Rain = 0
KPD4 200223Z 17011KT 14/M00 A2974 RMK A01 T01381004  RH  038%=      5-min Rain = 0
KPD4 200224Z 17011KT 14/M00 A2974 RMK A01 T01391004  RH  038%=      5-min Rain = 0
KPD4 200225Z 17010KT 14/M00 A2975 RMK A01 T01401004  RH  037%=      5-min Rain = 0
KPD4 200226Z 18010KT 14/M00 A2975 RMK A01 T01391004  RH  037%=      5-min Rain = 0
KPD4 200227Z 18010KT 14/M00 A2975 RMK A01 T01381004  RH  038%=      5-min Rain = 0
KPD4 200228Z 18011KT 14/M00 A2975 RMK A01 T01381004  RH  038%=      5-min Rain = 0
KPD4 200229Z 18011KT 14/M00 A2975 RMK A01 T01381004  RH  038%=      5-min Rain = 0
KPD4 200230Z 18009KT 14/M00 A2975 RMK A01 T01381004  RH  038%=      5-min Rain = 0
KPD4 200231Z 18010KT 14/M01 A2975 RMK A01 T01381005  RH  038%=      5-min Rain = 0
KPD4 200232Z 18010KT 14/M01 A2975 RMK A01 T01361005  RH  038%=      5-min Rain = 0
KPD4 200233Z 18009KT 14/M01 A2975 RMK A01 T01351005  RH  038%=      5-min Rain = 0
KPD4 200234Z 18009KT 13/M01 A2975 RMK A01 T01341005  RH  038%=      5-min Rain = 0
KPD4 200235Z 18009KT 13/M01 A2975 RMK A01 T01331005  RH  039%=      5-min Rain = 0
KPD4 200236Z 18010KT 13/M00 A2975 RMK A01 T01341004  RH  039%=      5-min Rain = 0
KPD4 200237Z 18009KT 13/M00 A2975 RMK A01 T01341004  RH  039%=      5-min Rain = 0
KPD4 200238Z 18010KT 13/M00 A2975 RMK A01 T01341004  RH  039%=      5-min Rain = 0
KPD4 200239Z 18009KT 13/M00 A2975 RMK A01 T01341004  RH  039%=      5-min Rain = 0
KPD4 200240Z 18009KT 13/M00 A2975 RMK A01 T01341003  RH  039%=      5-min Rain = 0
KPD4 200241Z 18009KT 13/M00 A2975 RMK A01 T01331004  RH  039%=      5-min Rain = 0
KPD4 200242Z 18010KT 13/M00 A2975 RMK A01 T01331004  RH  039%=      5-min Rain = 0
KPD4 200243Z 18010KT 13/M00 A2975 RMK A01 T01341003  RH  039%=      5-min Rain = 0
KPD4 200244Z 18009KT 13/M00 A2975 RMK A01 T01341003  RH  039%=      5-min Rain = 0
KPD4 200245Z 18009KT 13/M00 A2975 RMK A01 T01341003  RH  039%=      5-min Rain = 0
KPD4 200246Z 18009KT 13/M00 A2975 RMK A01 T01341002  RH  039%=      5-min Rain = 0
KPD4 200247Z 18009KT 14/M00 A2975 RMK A01 T01351002  RH  039%=      5-min Rain = 0
KPD4 200248Z 18010KT 14/M00 A2975 RMK A01 T01351002  RH  039%=      5-min Rain = 0
KPD4 200249Z 18011KT 14/M00 A2974 RMK A01 T01351001  RH  039%=      5-min Rain = 0
KPD4 200250Z 18010KT 14/00 A2975 RMK A01 T013700-0  RH  039%=      5-min Rain = 0
KPD4 200251Z 18010KT 14/M00 A2974 RMK A01 T01381001  RH  039%=      5-min Rain = 0
KPD4 200252Z 18010KT 14/M00 A2974 RMK A01 T01381001  RH  039%=      5-min Rain = 0
KPD4 200253Z 18009KT 14/M00 A2974 RMK A01 T01371001  RH  039%=      5-min Rain = 0
KPD4 200254Z 19009KT 14/M00 A2974 RMK A01 T01371001  RH  039%=      5-min Rain = 0
KPD4 200255Z 18010KT 14/M00 A2974 RMK A01 T01371001  RH  039%=      5-min Rain = 0
KPD4 200256Z 18011KT 14/00 A2974 RMK A01 T013700-0  RH  039%=      5-min Rain = 0
KPD4 200257Z 19011KT 14/00 A2974 RMK A01 T01370000  RH  039%=      5-min Rain = 0
KPD4 200258Z 19011KT 14/00 A2974 RMK A01 T01390001  RH  039%=      5-min Rain = 0
KPD4 200259Z 19009KT 14/00 A2974 RMK A01 T01390001  RH  039%=      5-min Rain = 0
KPD4 200300Z 18009KT 14/00 A2974 RMK A01 T01390001  RH  039%=      5-min Rain = 0
KPD4 200301Z 19009KT 14/00 A2974 RMK A01 T01380001  RH  039%=      5-min Rain = 0
KPD4 200302Z 19010KT 14/00 A2974 RMK A01 T01380001  RH  039%=      5-min Rain = 0
KPD4 200303Z 19008KT 14/00 A2974 RMK A01 T01380002  RH  039%=      5-min Rain = 0
KPD4 200304Z 19009KT 14/00 A2974 RMK A01 T01370001  RH  039%=      5-min Rain = 0
KPD4 200305Z 19008KT 14/00 A2974 RMK A01 T01360002  RH  040%=      5-min Rain = 0
KPD4 200306Z 19009KT 14/00 A2974 RMK A01 T01370002  RH  040%=      5-min Rain = 0
KPD4 200307Z 18009KT 14/00 A2974 RMK A01 T01370003  RH  040%=      5-min Rain = 0
KPD4 200308Z 19008KT 14/00 A2974 RMK A01 T01380003  RH  040%=      5-min Rain = 0
KPD4 200309Z 19009KT 14/00 A2974 RMK A01 T01370003  RH  040%=      5-min Rain = 0
KPD4 200310Z 18008KT 14/00 A2975 RMK A01 T01370003  RH  040%=      5-min Rain = 0
KPD4 200311Z 19008KT 14/00 A2975 RMK A01 T01370003  RH  040%=      5-min Rain = 0
KPD4 200312Z 19008KT 14/00 A2975 RMK A01 T01360004  RH  040%=      5-min Rain = 0
KPD4 200313Z 19008KT 14/00 A2975 RMK A01 T01360004  RH  040%=      5-min Rain = 0
KPD4 200314Z 20008KT 14/00 A2975 RMK A01 T01360004  RH  040%=      5-min Rain = 0
KPD4 200315Z 19008KT 14/00 A2975 RMK A01 T01350004  RH  041%=      5-min Rain = 0
KPD4 200316Z 19009KT 14/00 A2975 RMK A01 T01360004  RH  041%=      5-min Rain = 0
KPD4 200317Z 20008KT 14/01 A2975 RMK A01 T01370005  RH  040%=      5-min Rain = 0
KPD4 200318Z 20008KT 14/01 A2975 RMK A01 T01350005  RH  041%=      5-min Rain = 0
KPD4 200319Z 20008KT 14/01 A2975 RMK A01 T01350005  RH  041%=      5-min Rain = 0
KPD4 200320Z 20008KT 14/01 A2975 RMK A01 T01350005  RH  041%=      5-min Rain = 0
KPD4 200321Z 20009KT 13/01 A2975 RMK A01 T01340005  RH  041%=      5-min Rain = 0
KPD4 200322Z 20009KT 13/01 A2975 RMK A01 T01340006  RH  041%=      5-min Rain = 0
KPD4 200323Z 20009KT 14/01 A2975 RMK A01 T01350006  RH  041%=      5-min Rain = 0
KPD4 200324Z 20009KT 14/01 A2975 RMK A01 T01350007  RH  041%=      5-min Rain = 0
KPD4 200325Z 20009KT 14/01 A2975 RMK A01 T01350007  RH  041%=      5-min Rain = 0
KPD4 200326Z 20008KT 14/01 A2975 RMK A01 T01360007  RH  041%=      5-min Rain = 0
KPD4 200327Z 19009KT 14/01 A2975 RMK A01 T01350007  RH  041%=      5-min Rain = 0
KPD4 200328Z 20008KT 13/01 A2975 RMK A01 T01340007  RH  042%=      5-min Rain = 0
KPD4 200329Z 20008KT 13/01 A2975 RMK A01 T01330007  RH  042%=      5-min Rain = 0
KPD4 200330Z 20008KT 13/01 A2975 RMK A01 T01340008  RH  042%=      5-min Rain = 0
KPD4 200331Z 20008KT 13/01 A2975 RMK A01 T01330008  RH  042%=      5-min Rain = 0
KPD4 200332Z 20009KT 13/01 A2975 RMK A01 T01340009  RH  042%=      5-min Rain = 0
KPD4 200333Z 20008KT 13/01 A2975 RMK A01 T01340009  RH  042%=      5-min Rain = 0
KPD4 200334Z 20007KT 13/01 A2975 RMK A01 T01340009  RH  042%=      5-min Rain = 0
KPD4 200335Z 19007KT 13/01 A2975 RMK A01 T01330009  RH  043%=      5-min Rain = 0
KPD4 200336Z 20008KT 13/01 A2975 RMK A01 T01320009  RH  043%=      5-min Rain = 0
KPD4 200337Z 19008KT 13/01 A2975 RMK A01 T01310010  RH  043%=      5-min Rain = 0
KPD4 200338Z 19007KT 13/01 A2975 RMK A01 T01310010  RH  044%=      5-min Rain = 0
KPD4 200339Z 19007KT 13/01 A2975 RMK A01 T01320011  RH  044%=      5-min Rain = 0
KPD4 200340Z 19008KT 13/01 A2975 RMK A01 T01320011  RH  044%=      5-min Rain = 0
KPD4 200341Z 19006KT 13/01 A2975 RMK A01 T01320011  RH  044%=      5-min Rain = 0
KPD4 200342Z 19007KT 13/01 A2975 RMK A01 T01330011  RH  044%=      5-min Rain = 0
KPD4 200343Z 19007KT 13/01 A2975 RMK A01 T01320012  RH  044%=      5-min Rain = 0
KPD4 200344Z 19007KT 13/01 A2975 RMK A01 T01320012  RH  044%=      5-min Rain = 0
KPD4 200345Z 19006KT 13/01 A2975 RMK A01 T01320013  RH  044%=      5-min Rain = 0
KPD4 200346Z 19006KT 13/01 A2975 RMK A01 T01320013  RH  044%=      5-min Rain = 0
KPD4 200347Z 19007KT 13/01 A2975 RMK A01 T01310013  RH  044%=      5-min Rain = 0
KPD4 200348Z 19007KT 13/01 A2975 RMK A01 T01310013  RH  045%=      5-min Rain = 0
KPD4 200349Z 19007KT 13/01 A2975 RMK A01 T01310014  RH  045%=      5-min Rain = 0
KPD4 200350Z 19007KT 13/01 A2975 RMK A01 T01310014  RH  045%=      5-min Rain = 0
KPD4 200351Z 20008KT 13/01 A2975 RMK A01 T01310014  RH  045%=      5-min Rain = 0
KPD4 200352Z 19007KT 13/01 A2975 RMK A01 T01310014  RH  045%=      5-min Rain = 0
KPD4 200353Z 19009KT 13/01 A2975 RMK A01 T01300014  RH  045%=      5-min Rain = 0
KPD4 200354Z 19010KT 13/02 A2975 RMK A01 T01310016  RH  046%=      5-min Rain = 0
KPD4 200355Z 19008KT 13/02 A2975 RMK A01 T01330017  RH  045%=      5-min Rain = 0
KPD4 200356Z 18009KT 13/02 A2975 RMK A01 T01330017  RH  045%=      5-min Rain = 0
KPD4 200357Z 19008KT 13/02 A2975 RMK A01 T01330016  RH  045%=      5-min Rain = 0
KPD4 200358Z 19007KT 13/02 A2975 RMK A01 T01320016  RH  045%=      5-min Rain = 0
KPD4 200359Z 19009KT 13/02 A2975 RMK A01 T01310016  RH  046%=      5-min Rain = 0
KPD4 200400Z 18008KT 13/02 A2975 RMK A01 T01310017  RH  046%=      5-min Rain = 0
KPD4 200401Z 19009KT 13/02 A2975 RMK A01 T01310017  RH  046%=      5-min Rain = 0
KPD4 200402Z 19009KT 13/02 A2975 RMK A01 T01310017  RH  046%=      5-min Rain = 0
KPD4 200403Z 19009KT 13/02 A2975 RMK A01 T01300017  RH  046%=      5-min Rain = 0
KPD4 200404Z 18009KT 13/02 A2975 RMK A01 T01300018  RH  047%=      5-min Rain = 0
KPD4 200405Z 18008KT 13/02 A2975 RMK A01 T01300018  RH  047%=      5-min Rain = 0
KPD4 200406Z 18009KT 13/02 A2975 RMK A01 T01300018  RH  047%=      5-min Rain = 0
KPD4 200407Z 18009KT 13/02 A2975 RMK A01 T01300019  RH  047%=      5-min Rain = 0
KPD4 200408Z 18010KT 13/02 A2975 RMK A01 T01300020  RH  047%=      5-min Rain = 0
KPD4 200409Z 18010KT 13/02 A2975 RMK A01 T01310021  RH  047%=      5-min Rain = 0
KPD4 200410Z 18010KT 13/02 A2975 RMK A01 T01310021  RH  047%=      5-min Rain = 0
KPD4 200411Z 18009KT 13/02 A2975 RMK A01 T01310021  RH  047%=      5-min Rain = 0
KPD4 200412Z 18011KT 13/02 A2975 RMK A01 T01310021  RH  047%=      5-min Rain = 0
KPD4 200413Z 17009KT 13/02 A2975 RMK A01 T01300022  RH  048%=      5-min Rain = 0
KPD4 200414Z 17010KT 13/02 A2974 RMK A01 T01300021  RH  048%=      5-min Rain = 0
KPD4 200415Z 17008KT 13/02 A2974 RMK A01 T01290021  RH  048%=      5-min Rain = 0
KPD4 200416Z 17009KT 13/02 A2974 RMK A01 T01280021  RH  048%=      5-min Rain = 0
KPD4 200417Z 18009KT 13/02 A2974 RMK A01 T01270021  RH  048%=      5-min Rain = 0
KPD4 200418Z 18009KT 13/02 A2974 RMK A01 T01270022  RH  049%=      5-min Rain = 0
KPD4 200419Z 18010KT 13/02 A2974 RMK A01 T01260021  RH  049%=      5-min Rain = 0
KPD4 200420Z 18010KT 13/02 A2974 RMK A01 T01260022  RH  049%=      5-min Rain = 0
KPD4 200421Z 18009KT 13/02 A2974 RMK A01 T01260022  RH  049%=      5-min Rain = 0
KPD4 200422Z 18010KT 13/02 A2974 RMK A01 T01260023  RH  049%=      5-min Rain = 0
KPD4 200423Z 19009KT 13/02 A2974 RMK A01 T01260023  RH  050%=      5-min Rain = 0
KPD4 200424Z 18009KT 13/02 A2974 RMK A01 T01250022  RH  050%=      5-min Rain = 0
KPD4 200425Z 19009KT 12/02 A2974 RMK A01 T01240023  RH  050%=      5-min Rain = 0
KPD4 200426Z 19009KT 12/02 A2974 RMK A01 T01240023  RH  050%=      5-min Rain = 0
KPD4 200427Z 18009KT 12/02 A2974 RMK A01 T01240023  RH  050%=      5-min Rain = 0
KPD4 200428Z 19009KT 12/02 A2974 RMK A01 T01240024  RH  051%=      5-min Rain = 0
KPD4 200429Z 18009KT 12/02 A2974 RMK A01 T01240024  RH  050%=      5-min Rain = 0
KPD4 200430Z 19009KT 12/02 A2974 RMK A01 T01240024  RH  050%=      5-min Rain = 0
KPD4 200431Z 19009KT 12/02 A2974 RMK A01 T01240024  RH  050%=      5-min Rain = 0
KPD4 200432Z 19009KT 12/02 A2974 RMK A01 T01240024  RH  050%=      5-min Rain = 0
KPD4 200433Z 19009KT 12/02 A2974 RMK A01 T01240024  RH  051%=      5-min Rain = 0
KPD4 200434Z 19007KT 12/03 A2974 RMK A01 T01240025  RH  051%=      5-min Rain = 0
KPD4 200435Z 20008KT 12/03 A2974 RMK A01 T01240025  RH  051%=      5-min Rain = 0
KPD4 200436Z 20008KT 12/02 A2974 RMK A01 T01240024  RH  051%=      5-min Rain = 0
KPD4 200437Z 20008KT 12/02 A2974 RMK A01 T01230024  RH  051%=      5-min Rain = 0
KPD4 200438Z 19008KT 12/03 A2974 RMK A01 T01220025  RH  051%=      5-min Rain = 0
KPD4 200439Z 19007KT 12/03 A2974 RMK A01 T01220025  RH  051%=      5-min Rain = 0
KPD4 200440Z 19008KT 12/03 A2974 RMK A01 T01220025  RH  052%=      5-min Rain = 0
KPD4 200441Z 19008KT 12/03 A2974 RMK A01 T01210025  RH  052%=      5-min Rain = 0
KPD4 200442Z 19008KT 12/03 A2974 RMK A01 T01210025  RH  052%=      5-min Rain = 0
KPD4 200443Z 19009KT 12/03 A2974 RMK A01 T01210025  RH  052%=      5-min Rain = 0
KPD4 200444Z 19008KT 12/03 A2974 RMK A01 T01220026  RH  052%=      5-min Rain = 0
KPD4 200445Z 19008KT 12/03 A2974 RMK A01 T01220026  RH  052%=      5-min Rain = 0
KPD4 200446Z 19008KT 12/03 A2974 RMK A01 T01220027  RH  052%=      5-min Rain = 0
KPD4 200447Z 19008KT 12/03 A2974 RMK A01 T01220027  RH  052%=      5-min Rain = 0
KPD4 200448Z 19008KT 12/03 A2974 RMK A01 T01220027  RH  052%=      5-min Rain = 0
KPD4 200449Z 19008KT 12/03 A2974 RMK A01 T01220027  RH  052%=      5-min Rain = 0
KPD4 200450Z 19008KT 12/03 A2974 RMK A01 T01220027  RH  052%=      5-min Rain = 0
KPD4 200451Z 19008KT 12/03 A2974 RMK A01 T01220027  RH  052%=      5-min Rain = 0
KPD4 200452Z 19007KT 12/03 A2974 RMK A01 T01220027  RH  052%=      5-min Rain = 0
KPD4 200453Z 19008KT 12/03 A2974 RMK A01 T01210027  RH  053%=      5-min Rain = 0
KPD4 200454Z 19009KT 12/03 A2974 RMK A01 T01220028  RH  053%=      5-min Rain = 0
KPD4 200455Z 19007KT 12/03 A2974 RMK A01 T01220028  RH  052%=      5-min Rain = 0
KPD4 200456Z 19008KT 12/03 A2974 RMK A01 T01230028  RH  052%=      5-min Rain = 0
KPD4 200457Z 19008KT 12/03 A2974 RMK A01 T01220028  RH  053%=      5-min Rain = 0
KPD4 200458Z 18008KT 12/03 A2974 RMK A01 T01230029  RH  053%=      5-min Rain = 0
KPD4 200459Z 18008KT 12/03 A2974 RMK A01 T01220028  RH  053%=      5-min Rain = 0
KPD4 200500Z 18007KT 12/03 A2974 RMK A01 T01220028  RH  053%=      5-min Rain = 0
KPD4 200501Z 18009KT 12/03 A2974 RMK A01 T01210029  RH  053%=      5-min Rain = 0
KPD4 200502Z 18009KT 12/03 A2974 RMK A01 T01210029  RH  053%=      5-min Rain = 0
KPD4 200503Z 18009KT 12/03 A2974 RMK A01 T01230030  RH  053%=      5-min Rain = 0
KPD4 200504Z 18009KT 12/03 A2974 RMK A01 T01230030  RH  053%=      5-min Rain = 0
KPD4 200505Z 18008KT 12/03 A2974 RMK A01 T01230030  RH  053%=      5-min Rain = 0
KPD4 200506Z 18008KT 12/03 A2974 RMK A01 T01220029  RH  053%=      5-min Rain = 0
KPD4 200507Z 18009KT 12/03 A2974 RMK A01 T01210029  RH  053%=      5-min Rain = 0
KPD4 200508Z 18011KT 12/03 A2973 RMK A01 T01200030  RH  054%=      5-min Rain = 0
KPD4 200509Z 18009KT 12/03 A2973 RMK A01 T01220031  RH  054%=      5-min Rain = 0
KPD4 200510Z 18009KT 12/03 A2973 RMK A01 T01230030  RH  053%=      5-min Rain = 0
KPD4 200511Z 18009KT 12/03 A2973 RMK A01 T01230030  RH  053%=      5-min Rain = 0
KPD4 200512Z 18009KT 12/03 A2973 RMK A01 T01220030  RH  053%=      5-min Rain = 0
KPD4 200513Z 18009KT 12/03 A2973 RMK A01 T01230030  RH  053%=      5-min Rain = 0
KPD4 200514Z 19009KT 12/03 A2973 RMK A01 T01230030  RH  053%=      5-min Rain = 0
KPD4 200515Z 19009KT 12/03 A2973 RMK A01 T01230030  RH  053%=      5-min Rain = 0
KPD4 200516Z 19009KT 12/03 A2973 RMK A01 T01220030  RH  053%=      5-min Rain = 0
KPD4 200517Z 19009KT 12/03 A2973 RMK A01 T01210030  RH  054%=      5-min Rain = 0
KPD4 200518Z 19008KT 12/03 A2973 RMK A01 T01210030  RH  054%=      5-min Rain = 0
KPD4 200519Z 19009KT 12/03 A2973 RMK A01 T01200029  RH  054%=      5-min Rain = 0
KPD4 200520Z 19010KT 12/03 A2973 RMK A01 T01200030  RH  054%=      5-min Rain = 0
KPD4 200521Z 19010KT 12/03 A2973 RMK A01 T01210030  RH  054%=      5-min Rain = 0
KPD4 200522Z 19009KT 12/03 A2973 RMK A01 T01210030  RH  054%=      5-min Rain = 0
KPD4 200523Z 19009KT 12/03 A2973 RMK A01 T01200030  RH  054%=      5-min Rain = 0
KPD4 200524Z 19009KT 12/03 A2973 RMK A01 T01200030  RH  054%=      5-min Rain = 0
KPD4 200525Z 19009KT 12/03 A2973 RMK A01 T01190030  RH  054%=      5-min Rain = 0
KPD4 200526Z 19011KT 12/03 A2973 RMK A01 T01200030  RH  054%=      5-min Rain = 0
KPD4 200527Z 18009KT 12/03 A2973 RMK A01 T01200030  RH  054%=      5-min Rain = 0
KPD4 200528Z 19009KT 12/03 A2973 RMK A01 T01210030  RH  054%=      5-min Rain = 0
KPD4 200529Z 19011KT 12/03 A2973 RMK A01 T01210030  RH  054%=      5-min Rain = 0
KPD4 200530Z 18010KT 12/03 A2973 RMK A01 T01220031  RH  054%=      5-min Rain = 0
KPD4 200531Z 18010KT 12/03 A2973 RMK A01 T01210030  RH  054%=      5-min Rain = 0
KPD4 200532Z 18010KT 12/03 A2973 RMK A01 T01210030  RH  054%=      5-min Rain = 0
KPD4 200533Z 19010KT 12/03 A2973 RMK A01 T01200030  RH  054%=      5-min Rain = 0
KPD4 200534Z 19012KT 12/03 A2973 RMK A01 T01190030  RH  054%=      5-min Rain = 0
KPD4 200535Z 19010KT 12/03 A2973 RMK A01 T01200030  RH  054%=      5-min Rain = 0
KPD4 200536Z 18011KT 12/03 A2973 RMK A01 T01200030  RH  054%=      5-min Rain = 0
KPD4 200537Z 19010KT 12/03 A2972 RMK A01 T01200030  RH  054%=      5-min Rain = 0
KPD4 200538Z 19010KT 12/03 A2972 RMK A01 T01200030  RH  054%=      5-min Rain = 0
KPD4 200539Z 19011KT 12/03 A2972 RMK A01 T01200030  RH  054%=      5-min Rain = 0
KPD4 200540Z 19011KT 12/03 A2972 RMK A01 T01190030  RH  054%=      5-min Rain = 0
KPD4 200541Z 19011KT 12/03 A2972 RMK A01 T01200030  RH  054%=      5-min Rain = 0
KPD4 200542Z 19011KT 12/03 A2972 RMK A01 T01220031  RH  054%=      5-min Rain = 0
KPD4 200543Z 20011KT 12/03 A2972 RMK A01 T01220030  RH  053%=      5-min Rain = 0
KPD4 200544Z 19011KT 12/03 A2972 RMK A01 T01220030  RH  053%=      5-min Rain = 0
KPD4 200545Z 20011KT 12/03 A2972 RMK A01 T01210030  RH  054%=      5-min Rain = 0
KPD4 200546Z 20010KT 12/03 A2972 RMK A01 T01210030  RH  054%=      5-min Rain = 0
KPD4 200547Z 19010KT 12/03 A2972 RMK A01 T01210030  RH  054%=      5-min Rain = 0
KPD4 200548Z 19010KT 12/03 A2972 RMK A01 T01210030  RH  053%=      5-min Rain = 0
KPD4 200549Z 19011KT 12/03 A2972 RMK A01 T01210030  RH  054%=      5-min Rain = 0
KPD4 200550Z 19012KT 12/03 A2972 RMK A01 T01220030  RH  053%=      5-min Rain = 0
KPD4 200551Z 19012KT 12/03 A2972 RMK A01 T01230030  RH  053%=      5-min Rain = 0
KPD4 200552Z 19011KT 12/03 A2972 RMK A01 T01240030  RH  053%=      5-min Rain = 0
KPD4 200553Z 19011KT 13/03 A2972 RMK A01 T01250030  RH  053%=      5-min Rain = 0
KPD4 200554Z 19012KT 13/03 A2972 RMK A01 T01250030  RH  053%=      5-min Rain = 0
KPD4 200555Z 19012KT 13/03 A2972 RMK A01 T01250030  RH  052%=      5-min Rain = 0
KPD4 200556Z 18013KT 13/03 A2972 RMK A01 T01260030  RH  052%=      5-min Rain = 0
KPD4 200557Z 19012KT 13/03 A2972 RMK A01 T01260030  RH  052%=      5-min Rain = 0
KPD4 200558Z 18012KT 13/03 A2972 RMK A01 T01260030  RH  052%=      5-min Rain = 0
KPD4 200559Z 18012KT 13/03 A2972 RMK A01 T01260030  RH  052%=      5-min Rain = 0

Page generated in 0.0835 seconds.